     2              OBSERVATION DATA    GPS                 RINEX VERSION / TYPE
teqc 2000Feb29 20021016 17:30:30UTC                         PGM / RUN BY / DATE
                                                            COMMENT
L2: 1 -> 1; 5 -> 5; 60 -> 9                                 COMMENT
L2: 1 -> 1; 5 -> 5; 60 -> 9                                 COMMENT
L2: 1 -> 1; 5 -> 5; 60 -> 9                                 COMMENT
L2: 1 -> 1; 5 -> 5; 60 -> 9                                 COMMENT
L2: 1 -> 1; 5 -> 5; 60 -> 9                                 COMMENT
Original Marker Name: 4042191                               COMMENT
Campaign Name: Yolo County Subsidence 2002                  COMMENT
4-Character Station Name: LIBR                              COMMENT
6-Character Antenna Code: TRMCMP                            COMMENT
Vertical Measurement Point: BPA                             COMMENT
Vertical Offset to Rinex Ref. Point: 0.0000                 COMMENT
Radial Measurement Point: RRP                               COMMENT
Radial Offset to Rinex Ref. Point: 0.0000                   COMMENT
Antenna Height from Field Measurement: 2.0000 m             COMMENT
Additional Antenna Identification Info.:                    COMMENT
Model 22020.00+GP                                           COMMENT
Original XYZ: -2625340.2189 -4238454.0454 3964547.4464      COMMENT
New XYZ position is based on association with SCEC monument COMMENT
E1F8X9R5+0011. Position of that monument is believed to be  COMMENT
valid to within 1 m horizontally; vertical accuracy         COMMENT
should be no worse than 3-times this value.                 COMMENT
                                                            COMMENT
Revised Rinex header created by UCSD GPS archive for        COMMENT
GSAC on 27-Jun-2003 (2003:178) 16:28:20 GMT                 COMMENT
For assistance contact dagnew@ucsd.edu                      COMMENT
or anderson@python.ucsd.edu                                 COMMENT
                                                            COMMENT
LIBRARY 1999                                                MARKER NAME
4042                                                        MARKER NUMBER
-Unknown- YOLO_COUNTY                                       OBSERVER / AGENCY
220224042 TRIMBLE 4700 NP 1.30; SP 1.43                     REC # / TYPE / VERS
0220078884 TR GEOD L1/L2 GP                                 ANT # / TYPE
 -2625340.7701 -4238454.3288  3964548.8758                  APPROX POSITION XYZ
        2.0000        0.0000        0.0000                  ANTENNA: DELTA H/E/N
     1     1     0                                          WAVELENGTH FACT L1/2
     7    C1    L1    L2    P1    P2    S1    S2            # / TYPES OF OBSERV
     0                                                      INTERVAL
  2002     7    10    16    44   45.000000                  TIME OF FIRST OBS
  2002     7    10    17    30   60.000000                  TIME OF LAST OBS
                                                            END OF HEADER
 02  7 10 16 44 45.0000000  0  7G29G 6G15G17G18G22G23
  22937652.4454       5305.81359      2772.34057                  22937651.5554
        48.2504         37.0004
  21566900.9694      37809.53959     13592.68458                  21566900.4964
        50.7504         43.0004
  20286093.7584     -23339.81459    -11213.07158                  20286091.6214
        52.0004         46.5004
  20382516.2664     -12467.20059     -6335.30158                  20382513.7034
        51.0004         44.7504
  20376349.4064     -33145.69059    -16153.66258                  20376346.7154
        50.0004         45.5004
  23186732.5784      11144.91259      1324.98757                  23186732.0594
        46.2504         32.5004
  22297564.8054      33099.22259     12666.40458                  22297564.0594
        48.7504         40.5004
 02  7 10 16 45  0.0000000  0  8G29G 6G15G17G18G21G22G23
  22939436.4534      14678.33149     10075.57047                  22939435.6414
        49.0004         36.0004
  21572511.7504      67291.56349     36565.63448                  21572510.6724
        50.5004         42.0004
  20282576.0394     -41826.06549    -25617.96248                  20282574.1024
        53.0004         45.2504
  20380545.0944     -22823.77749    -14405.37848                  20380543.5314
        50.7504         44.0004
  20371324.4454     -59553.08949    -36730.86748                  20371321.6764
        49.0004         44.7504
  22439261.8674    -102471.27559    -68818.27657                  22439261.9694
        48.7504         39.0004
  23188434.5234      20090.52349      8295.55847                  23188434.7814
        46.0004         32.7504
  22302788.1804      60551.05249     34057.40648                  22302787.9804
        49.0004         40.0004
 02  7 10 16 45 15.0000000  0  9G29G26G 6G15G17G18G21G22G23
  22941203.7584      23965.11449     17312.00847                  22941203.3014
        49.0004         35.5004
  22042167.3984       7486.35659       411.26457                  22042166.0004
        47.7504         38.5004
  21578098.5314      96652.53349     59444.28948                  21578097.9804
        51.0004         42.0004
  20279029.7114     -60460.60349    -40138.38648                  20279028.4264
        52.0004         44.7504
  20378544.7034     -33336.19449    -22596.88948                  20378543.3524
        50.7504         43.7504
  20366280.1644     -86059.87849    -57385.51048                  20366277.5474
        50.0004         44.5004
  22430594.3444    -148020.64949   -104311.28947                  22430594.5944
        49.0004         39.0004
  23190117.5944      28934.80049     15187.14347                  23190117.3594
        45.5004         31.5004
  22307980.6094      87834.14149     55316.92948                  22307979.7974
        48.5004         40.0004
 02  7 10 16 45 30.0000000  0  9G29G26G 6G15G17G18G21G22G23
  22942954.8754      33169.79949     24484.45647                  22942954.0704
        47.7504         35.7504
  22042700.1954      10286.35949      2593.06247                  22042699.3714
        48.2504         38.5004
  21583663.7664     125895.76749     82231.18148                  21583663.0984
        51.0004         41.7504
  20275456.2034     -79239.92649    -54771.64648                  20275454.6024
        51.5004         45.0004
  20376515.6564     -44000.93449    -30907.09848                  20376513.7854
        50.5004         44.0004
  20361217.6564    -112662.56249    -78114.88548                  20361215.2624
        50.0004         44.5004
  22421900.2274    -193711.60149   -139914.62248                  22421899.7734
        48.7504         40.0004
  23191782.5634      37680.86249     22002.22147                  23191782.1054
        46.2504         31.7504
  22313141.2194     114951.76549     76447.50748                  22313140.3164
        49.2504         40.0004
 02  7 10 16 45 45.0000000  0  9G29G26G 6G15G17G18G21G22G23
  22944691.8364      42298.20649     31597.47847                  22944691.1374
        48.2504         34.5004
  22043224.2814      13041.81149      4740.16847                  22043223.1844
        48.0004         38.5004
  21589206.9304     155027.26049    104931.00948                  21589206.0944
        50.0004         41.7504
  20271856.1254     -98157.72749    -69512.79448                  20271854.5474
        52.2504         45.0004
  20374458.3054     -54811.72749    -39331.10548                  20374456.2774
        49.5004         43.5004
  20356138.1804    -139354.80149    -98914.02948                  20356135.4924
        48.0004         44.2504
  22413178.9534    -239537.73349   -175623.28248                  22413178.5204
        49.0004         39.5004
  23193429.1334      46334.78849     28745.50247                  23193428.9734
        45.2504         32.0004
  22318270.5474     141910.00049     97453.90248                  22318270.3524
        47.0004         39.5004
 02  7 10 16 46  0.0000000  0  9G29G26G 6G15G17G18G21G22G23
  22946416.1414      51357.73349     38656.81947                  22946415.1644
        47.2504         34.7504
  22043741.5474      15759.94349      6858.17347                  22043740.3094
        48.0004         38.2504
  21594730.9924     184054.19049    127549.35748                  21594730.4104
        50.2504         42.0004
  20268231.4454    -117206.58649    -84356.07048                  20268229.7704
        52.0004         45.0004
  20372374.8054     -65761.17949    -47863.15648                  20372372.9494
        49.7504         43.7504
  20351043.3204    -166129.30749   -119777.28948                  20351040.6294
        49.0004         44.5004
  22404434.1174    -285491.80249   -211431.63047                  22404434.1254
        48.7504         39.2504
  23195060.3984      54903.62949     35422.48047                  23195060.2074
        45.5004         32.0004
  22323371.8754     168715.87649    118341.55648                  22323371.0704
        48.5004         40.2504
 02  7 10 16 46 15.0000000  0  9G29G26G 6G15G17G18G21G22G23
  22948128.4534      60356.03449     45668.47747                  22948127.6954
        47.7504         35.2504
  22044253.4844      18448.80549      8953.39047                  22044252.7624
        47.2504         38.7504
  21600235.6644     212984.34349    150092.30048                  21600235.4614
        50.0004         42.0004
  20264583.1414    -136378.45149    -99295.19948                  20264581.6804
        52.7504         45.0004
  20370266.0164     -76841.16149    -56496.92248                  20370264.3554
        48.0004         44.0004
  20345934.1884    -192978.06349   -140698.39648                  20345931.8014
        47.2504         44.2504
  22395667.0084    -331565.62049   -247333.28147                  22395666.8954
        49.5004         39.2504
  23196676.5394      63395.17349     42039.22747                  23196675.6484
        45.5004         32.5004
  22328445.2504     195377.12149    139116.52548                  22328444.7504
        49.0004         40.7504
 02  7 10 16 46 30.0000000  0  9G29G26G 6G15G17G18G21G22G23
  22949830.6884      69300.49149     52638.15247                  22949830.3284
        47.7504         34.7504
  22044760.7664      21115.43849     11031.26647                  22044759.9534
        48.0004         39.0004
  21605724.2814     241824.85549    172565.38948                  21605724.0514
        50.5004         41.7504
  20260912.7734    -155665.91249   -114324.39448                  20260911.0864
        53.0004         44.7504
  20368134.2974     -88044.22349    -65226.59948                  20368132.7074
        49.0004         44.0004
  20340812.5004    -219893.57149   -161671.52948                  20340809.3404
        48.5004         44.2504
  22386877.6804    -377751.84149   -283322.52547                  22386877.2704
        48.7504         39.0004
  23198278.0474      71816.48549     48601.26047                  23198278.3524
        45.0004         31.7504
  22333492.7504     221900.82449    159784.32148                  22333492.1174
        48.2504         40.7504
 02  7 10 16 46 45.0000000  0  9G29G26G 6G15G17G18G21G22G23
  22951523.6804      78198.93749     59571.98447                  22951523.2194
        46.0004         34.5004
  22045265.2894      23767.91549     13098.11447                  22045264.4104
        46.7504         38.5004
  21611196.7974     270583.76449    194974.88348                  21611195.4264
        50.7504         41.7504
  20257221.8834    -175060.81849   -129437.32348                  20257220.6374
        52.5004         45.0004
  20365980.3984     -99362.36249    -74045.93648                  20365979.0354
        48.2504         43.7504
  20335679.5554    -246867.87449   -182690.47248                  20335676.5004
        48.5004         44.5004
  22378069.0474    -424042.18149   -319392.90247                  22378068.4614
        48.5004         38.7504
  23199869.2114      80175.40449     55114.65247                  23199869.2384
        43.5004         32.0004
  22338515.1724     248294.84349    180351.06148                  22338514.7814
        48.2504         41.2504
 02  7 10 16 47  0.0000000  0  9G29G26G 6G15G17G18G21G22G23
  22953210.6564      87062.10449     66478.32747                  22953209.7074
        45.0004         34.0004
  22045769.5234      26417.01449     15162.34547                  22045768.9844
        45.2504         38.5004
  21616656.1564     299271.63949    217329.04748                  21616654.5274
        50.0004         41.5004
  20253513.1094    -194552.27549   -144625.47448                  20253511.1094
        52.5004         44.7504
  20363806.8914    -110784.62749    -82946.41348                  20363805.3404
        47.5004         43.7504
  20330537.2344    -273890.19549   -203746.82348                  20330534.4534
        48.7504         44.2504
  22369242.2034    -470425.67549   -355535.87848                  22369242.0634
        48.7504         39.5004
  23201449.7734      88482.56849     61587.73547                  23201449.6764
        40.0004         32.5004
  22343515.3914     274569.88049    200825.08648                  22343514.6884
        48.5004         40.5004
 02  7 10 16 47 15.0000000  0  9G29G26G 6G15G17G18G21G22G23
  22954892.2194      95900.36749     73365.29047                  22954891.0664
        47.0004         35.0004
  22046275.0554      29073.04849     17231.97647                  22046274.7734
        47.0004         38.0004
  21622103.7274     327898.81449    239635.91448                  21622103.1604
        50.2504         41.5004
  20249787.6804    -214129.72749   -159880.63248                  20249785.5744
        51.7504         44.7504
  20361615.5864    -122300.37049    -91919.72348                  20361614.0784
        48.0004         43.7504
  20325387.7274    -300950.10049   -224832.45948                  20325385.0594
        48.0004         44.5004
  22360400.1644    -516891.80449   -391743.22647                  22360400.5234
        48.5004         39.0004
  23203023.2424      96748.12049     68028.38747                  23203022.5124
        42.5004         32.0004
  22348494.6254     300736.12549    221214.35648                  22348493.4844
        47.5004         40.7504
 02  7 10 16 47 30.0000000  0  9G29G26G 6G15G17G18G21G22G23
  22956569.7974     104718.19249     80236.28647                  22956569.7504
        47.5004         34.7504
  22046783.1024      31740.62849     19310.59547                  22046782.9414
        47.2504         38.5004
  21627540.2114     356469.62849    261898.84248                  21627539.7234
        50.5004         41.2504
  20246046.8914    -233788.51549   -175199.18248                  20246044.6294
        52.2504         45.0004
  20359407.1174    -133904.97449   -100962.28948                  20359405.9924
        49.0004         43.7504
  20320232.2974    -328042.87649   -245943.71348                  20320229.7544
        48.7504         44.7504
  22351543.2504    -563435.76149   -428011.20947                  22351543.5784
        49.0004         39.0004
  23204588.3054     104976.45149     74440.03047                  23204587.7114
        45.5004         31.5004
  22353454.2194     326798.05049    241522.32048                  22353453.2934
        48.0004         40.5004
 02  7 10 16 47 45.0000000  0  9G29G26G 6G15G17G18G21G22G23
  22958246.3914     113524.16949     87098.05547                  22958245.3244
        44.5004         34.7504
  22047294.3284      34428.27749     21404.86047                  22047293.9024
        46.2504         38.0004
  21632968.0784     384992.63749    284124.53448                  21632967.1994
        49.7504         41.0004
  20242291.9774    -253519.86149   -190574.25548                  20242289.9884
        52.7504         45.2504
  20357183.8054    -145589.66949   -110067.25048                  20357181.7774
        47.5004         43.5004
  20315072.1334    -355159.75749   -267073.73948                  20315069.5824
        47.2504         44.7504
  22342673.3984    -610048.92949   -464333.14647                  22342672.9654
        48.7504         39.0004
  23206148.8364     113176.04749     80829.28447                  23206148.8444
        40.2504         31.0004
  22358395.0314     352764.08949    261755.58248                  22358394.1604
        48.5004         40.2504
 02  7 10 16 48  0.0000000  0  9G29G26G 6G15G17G18G21G22G23
  22959920.9454     122323.79049     93954.90747                  22959919.5124
        47.2504         35.0004
  22047810.1954      37141.59949     23519.12547                  22047809.6684
        46.2504         38.2504
  21638387.8054     413473.38049    306317.27848                  21638387.3014
        49.2504         41.7504
  20238524.6724    -273318.00949   -206001.39148                  20238522.4804
        52.7504         44.7504
  20354946.2974    -157348.78249   -119230.20648                  20354944.5044
        49.2504         43.7504
  20309908.2194    -382295.03849   -288218.11648                  20309905.8014
        49.0004         44.5004
  22333790.7734    -656725.51649   -500704.48748                  22333790.8284
        49.0004         39.5004
  23207705.5084     121352.33349     87200.37647                  23207704.7384
        45.2504         33.2504
  22363318.9614     378639.66449    281918.33547                  22363318.1564
        48.0004         39.2504
 02  7 10 16 48 15.0000000  0  9G29G26G 6G15G17G18G21G22G23
  22961594.1174     131115.70249    100805.71647                  22961593.2114
        46.7504         34.7504
  22048331.7504      39879.32649     25652.41847                  22048330.9614
        47.0004         38.2504
  21643799.5314     441910.39449    328475.95748                  21643798.5044
        49.7504         41.2504
  20234744.0944    -293184.12749   -221481.49048                  20234742.1334
        52.0004         45.0004
  20352694.2504    -169183.36249   -128451.96548                  20352692.5004
        49.5004         43.7504
  20304741.2894    -409449.91549   -309377.77148                  20304738.3674
        49.7504         44.0004
  22324896.3594    -703466.72149   -537126.19247                  22324895.9104
        48.7504         39.2504
  23209256.3134     129503.76649     93552.09147                  23209255.5594
        42.7504         32.7504
  22368225.4144     404423.33849    302009.48148                  22368224.6764
        46.2504         40.2504
 02  7 10 16 48 29.9990000  0  9G29G26G 6G15G17G18G21G22G23
  22963267.3314     139910.13249    107658.49647                  22963266.2724
        45.2504         34.7504
  22048859.4014      42652.08349     27812.97747                  22048858.2494
        49.7504         38.5004
  21649204.5344     470312.61749    350607.52948                  21649203.1404
        50.0004         41.5004
  20230953.1674    -313105.77849   -237004.86948                  20230951.0154
        52.5004         45.0004
  20350430.3554    -181081.63749   -137723.36048                  20350428.2614
        51.5004         44.5004
  20299572.4874    -436611.66649   -330542.77748                  20299569.3744
        51.0004         44.2504
  22315992.3084    -750258.31649   -573587.15648                  22315991.8234
        48.0004         39.5004
  23210804.9724     137640.58849     99892.43647                  23210804.0034
        41.2504         31.5004
  22373116.8474     430124.14649    322036.06148                  22373115.5734
        48.2504         40.0004
 02  7 10 16 48 44.9990000  0  9G29G26G 6G15G17G18G21G22G23
  22964942.0194     148709.58149    114515.20147                  22964940.8314
        47.2504         34.2504
  22049393.4954      45461.63749     30002.24847                  22049393.6474
        48.0004         38.0004
  21654603.5734     498685.19449    372715.99348                  21654602.2454
        49.7504         40.7504
  20227151.1054    -333084.01149   -252572.31548                  20227149.3944
        52.0004         44.7504
  20348153.6834    -193043.65249   -147044.41548                  20348151.8274
        51.7504         44.2504
  20294402.0814    -463782.41149   -351714.78048                  20294399.0814
        49.5004         44.5004
  22307077.3864    -797104.76549   -610090.85947                  22307077.0624
        48.7504         39.2504
  23212350.5504     145765.06649    106223.16747                  23212351.1284
        45.0004         32.5004
  22377991.9334     455746.78749    342001.73048                  22377991.7264
        47.7504         39.5004
 02  7 10 16 48 59.9990000  0  9G29G26G 6G15G17G18G21G22G23
  22966618.6754     157519.92249    121380.38747                  22966617.5654
        47.7504         34.5004
  22049936.5194      48314.40749     32225.18347                  22049935.8274
        46.0004         38.5004
  21659997.5344     527032.54049    394804.81348                  21659996.8784
        49.2504         41.0004
  20223339.9724    -353110.91049   -268177.68948                  20223338.3624
        52.0004         44.7504
  20345866.5344    -205061.74549   -156409.17548                  20345865.3084
        48.7504         44.5004
  20289231.1904    -490953.71349   -372887.21748                  20289228.1754
        48.2504         44.5004
  22298154.1204    -843996.48849   -646629.83847                  22298153.5854
        48.2504         39.2504
  23213895.8554     153882.99249    112548.78147                  23213894.9644
        45.2504         31.5004
  22382854.3004     481295.90349    361910.10748                  22382852.8554
        47.5004         39.7504
 02  7 10 16 49 14.9990000  0  9G29G26G 6G15G17G18G21G22G23
  22968298.1674     166348.03449    128259.41247                  22968297.8824
        46.7504         35.7504
  22050489.1834      51217.14149     34487.03847                  22050488.5114
        47.5004         37.7504
  21665388.5974     555361.52049    416879.29848                  21665388.0504
        49.0004         40.5004
  20219521.4564    -373179.40449   -283815.48748                  20219519.2264
        52.5004         44.7504
  20343570.5504    -217128.97049   -165812.21148                  20343569.0974
        51.0004         44.5004
  20284062.0654    -518118.57249   -394054.64548                  20284059.2064
        50.7504         44.7504
  22289223.6284    -890926.22449   -683198.44847                  22289223.6794
        48.0004         39.0004
  23215440.2614     162001.21249    118874.62147                  23215439.9404
        45.7504         31.5004
  22387703.2614     506778.30149    381766.50248                  22387702.3584
        48.5004         40.0004
 02  7 10 16 49 29.9990000  0  9G29G26G 6G15G17G18G21G22G23
  22969980.9254     175192.42949    135151.13547                  22969980.2144
        47.0004         34.7504
  22051050.9334      54168.48749     36786.77247                  22051049.6204
        47.0004         37.2504
  21670775.7614     583670.55749    438938.24648                  21670774.6674
        49.0004         41.0004
  20215694.3864    -393290.78849   -299486.70348                  20215692.3194
        52.0004         44.7504
  20341264.4014    -229246.70549   -175254.61548                  20341262.6554
        51.5004         44.7504
  20278893.6284    -545278.44849   -415218.19048                  20278890.7144
        51.0004         44.5004
  22280285.9404    -937895.34249   -719797.74047                  22280285.7494
        48.0004         38.7504
  23216984.9804     170118.04849    125199.39247                  23216984.0504
        46.0004         31.2504
  22392539.1124     532192.41149    401569.67548                  22392538.8624
        46.7504         39.7504
 02  7 10 16 49 44.9990000  0  9G29G26G 6G15G17G18G21G22G23
  22971667.7764     184055.32649    142057.26647                  22971666.7574
        46.2504         33.5004
  22051621.7144      57170.51149     39126.01947                  22051620.4484
        48.0004         38.0004
  21676159.3154     611961.84149    460983.37548                  21676158.1474
        48.5004         41.0004
  20211859.5344    -413442.69749   -315189.50248                  20211857.7024
        51.7504         45.0004
  20338949.1364    -241412.50649   -184734.47048                  20338947.5694
        51.5004         44.0004
  20273726.8394    -572430.81149   -436375.86648                  20273723.7414
        50.5004         44.0004
  22271341.0584    -984901.28749   -756425.74047                  22271340.4134
        48.5004         39.0004
  23218528.8944     178235.58949    131524.71547                  23218529.6404
        45.5004         32.2504
  22397362.8554     557540.38849    421321.32747                  22397362.6364
        47.7504         39.2504
 02  7 10 16 49 59.9990000  0  9G29G26G 6G15G17G18G21G22G23
  22973358.7144     192939.90149    148980.31447                  22973357.4174
        46.5004         34.0004
  22052203.3554      60226.54049     41507.32347                  22052203.1474
        46.0004         38.0004
  21681539.7614     640238.52349    483017.12048                  21681538.9014
        48.7504         40.5004
  20208017.8784    -433631.59449   -330921.10548                  20208016.0544
        51.0004         44.5004
  20336625.7844    -253622.81449   -194248.99948                  20336623.8194
        50.0004         43.5004
  20268561.9874    -599572.42249   -457525.18048                  20268558.4954
        50.5004         44.2504
  22262389.2454   -1031940.76249   -793079.85047                  22262389.3704
        47.7504         38.7504
  23220074.8474     186356.84649    137852.92447                  23220074.9014
        45.0004         31.5004
  22402174.4804     582825.31349    441023.84547                  22402174.1634
        48.2504         39.2504
 02  7 10 16 50 14.9990000  0  9G29G26G 6G15G17G18G21G22G23
  22975053.7144     201848.86049    155922.35247                  22975053.1284
        45.0004         35.0004
  22052795.9954      63339.38849     43932.90947                  22052795.1444
        46.7504         38.2504
  21686918.7614     668503.30849    505041.59748                  21686917.5384
        49.0004         41.0004
  20204169.2144    -453854.54449   -346679.25548                  20204167.7924
        50.7504         44.7504
  20334294.4954    -265874.87749   -203796.06648                  20334292.8084
        51.0004         44.0004
  20263399.8864    -626700.42449   -478663.87948                  20263396.4444
        49.5004         44.0004
  22253432.5814   -1079010.81349   -829757.78947                  22253432.0584
        48.7504         39.0004
  23221621.5344     194484.56049    144186.18647                  23221621.5154
        45.5004         31.5004
  22406974.5114     608049.85749    460679.30747                  22406974.0384
        48.2504         39.0004
 02  7 10 16 50 29.9990000  0  9G29G26G 6G15G17G18G21G22G23
  22976754.6514     210789.50649    162889.05947                  22976754.7694
        43.0004         34.0004
  22053400.5734      66516.39949     46408.49247                  22053400.1944
        46.5004         38.0004
  21692296.3864     696763.43349    527062.43148                  21692295.7654
        49.0004         41.0004
  20200315.6514    -474104.03249   -362458.07248                  20200314.5774
        50.0004         44.5004
  20331956.7694    -278161.00849   -213369.66948                  20331954.5854
        51.0004         44.0004
  20258241.7064    -653807.27349   -499786.09548                  20258238.5624
        49.5004         44.2504
  22244471.1364   -1126103.86349   -866453.64247                  22244470.5624
        48.0004         39.0004
  23223171.0504     202625.81349    150529.98647                  23223170.7614
        45.7504         31.0004
  22411764.6364     633221.28649    480293.39647                  22411764.0264
        47.5004         39.0004
 02  7 10 16 50 44.9990000  0  9G29G26G 6G15G17G18G21G22G23
  22978461.8394     219758.51649    169877.89547                  22978461.0384
        45.5004         33.7504
  22054016.1364      69754.32149     48931.54047                  22054016.1404
        44.7504         38.2504
  21697672.3624     725015.58649    549077.06348                  21697671.7764
        48.5004         41.0004
  20196456.9334    -494383.13149   -378259.98248                  20196455.4804
        50.7504         44.7504
  20329611.1124    -290484.28449   -222972.24048                  20329609.4484
        48.5004         44.5004
  20253086.7064    -680896.14649   -520894.30948                  20253083.5504
        49.0004         44.2504
  22235504.1284   -1173222.98949   -903169.82948                  22235503.9994
        47.0004         40.0004
  23224722.4174     210777.31449    156881.73947                  23224721.7494
        46.0004         31.0004
  22416544.0194     658336.26549    499863.48647                  22416543.0424
        48.2504         39.2504
 02  7 10 16 50 59.9990000  0  9G29G26G 6G15G17G18G21G22G23
  22980174.6514     228760.34749    176892.27647                  22980174.3744
        45.0004         33.7504
  22054644.4174      73057.51249     51505.45647                  22054644.4914
        47.5004         38.0004
  21703048.0654     753264.11349    571088.86948                  21703047.5584
        48.5004         40.5004
  20192593.4644    -514687.18349   -394081.31848                  20192591.6474
        50.0004         45.0004
  20327260.1594    -302840.10549   -232600.14848                  20327258.4724
        49.0004         45.0004
  20247936.1364    -707962.49949   -541984.97548                  20247933.4994
        47.5004         44.2504
  22226533.5654   -1220363.29349   -939902.50948                  22226532.9014
        47.5004         39.5004
  23226275.9804     218943.24349    163244.79147                  23226275.9484
        46.0004         31.0004
  22421313.1054     683399.05249    519392.91448                  22421312.0114
        47.0004         39.5004
 02  7 10 16 51 14.9990000  0  9G29G26G 6G15G17G18G21G22G23
  22981894.2844     237795.89049    183932.94447                  22981893.7534
        42.5004         34.2504
  22055286.0424      76427.05049     54131.05447                  22055285.8744
        47.2504         38.2504
  21708423.5974     781509.97449    593098.60248                  21708422.4444
        49.5004         40.7504
  20188725.0114    -535014.93249   -409921.13148                  20188723.4374
        49.5004         44.5004
  20324902.5424    -315227.25349   -242252.48248                  20324900.8434
        49.2504         44.0004
  20242790.0264    -735005.16749   -563057.18348                  20242787.3434
        48.5004         44.2504
  22217559.4014   -1267523.56949   -976650.74447                  22217559.3514
        48.0004         39.2504
  23227832.9564     227124.60549    169619.81247                  23227833.2724
        46.2504         31.5004
  22426072.5504     708410.60949    538882.42847                  22426071.9834
        47.0004         39.2504
 02  7 10 16 51 29.9990000  0  9G29G26G 6G15G17G18G21G22G23
  22983620.7144     246867.51549    191001.73147                  22983620.0974
        43.7504         33.2504
  22055940.8084      79865.21049     56810.13547                  22055939.6984
        46.5004         38.2504
  21713798.3004     809755.31549    615107.92948                  21713797.1054
        48.0004         40.7504
  20184852.8084    -555364.07749   -425777.61548                  20184851.0074
        50.5004         44.5004
  20322539.6594    -327643.27249   -251927.30948                  20322538.5034
        49.2504         43.5004
  20237648.8084    -762021.85349   -584109.13848                  20237646.0034
        48.0004         44.2504
  22208581.9014   -1314701.42649  -1013412.70147                  22208581.0624
        48.0004         39.2504
  23229393.3084     235323.45349    176008.51847                  23229392.4874
        45.7504         30.2504
  22430822.4094     733373.08649    558333.68147                  22430822.5344
        47.0004         39.0004
 02  7 10 16 51 44.9990000  0  9G29G26G 6G15G17G18G21G22G23
  22985355.1284     255981.18949    198103.27747                  22985353.5854
        44.5004         34.2504
  22056609.6054      83378.03049     59547.39347                  22056608.3904
        45.2504         38.5004
  21719174.2844     838006.15249    637121.52548                  21719173.1904
        47.7504         41.2504
  20180977.3084    -575728.34549   -441645.87948                  20180975.9374
        50.5004         44.5004
  20320173.2064    -340081.85849   -261619.71548                  20320171.4174
        49.2504         44.0004
  20232513.7694    -789006.36149   -605136.02948                  20232510.8974
        47.5004         44.7504
  22199602.3554   -1361890.68949  -1050183.52848                  22199601.8124
        46.7504         39.7504
  23230958.3554     243545.68549    182415.42347                  23230957.3314
        46.0004         30.2504
  22435565.1594     758292.39349    577751.30148                  22435564.5504
        48.2504         39.5004
 02  7 10 16 51 59.9990000  0  9G29G26G 6G15G17G18G21G22G23
  22987097.1054     265135.36249    205236.38547                  22987095.9174
        43.0004         35.2504
  22057291.3944      86964.17249     62341.77147                  22057291.1244
        47.7504         38.5004
  21724551.5194     866261.02649    659138.26748                  21724550.4484
        47.5004         40.5004
  20177099.3624    -596108.94649   -457526.87748                  20177097.5154
        52.0004         44.5004
  20317801.6364    -352544.41949   -271330.81448                  20317799.7654
        48.7504         44.0004
  20227384.6364    -815959.85949   -626138.75748                  20227382.3234
        47.7504         45.0004
  22190619.9334   -1409092.63749  -1086964.24548                  22190619.6984
        47.0004         40.0004
  23232526.8394     251789.73749    188839.31147                  23232526.4254
        45.0004         30.5004
  22440298.5654     783167.07949    597134.15347                  22440297.7224
        47.5004         39.2504
 02  7 10 16 52 14.9990000  0  9G29G26G 6G15G17G18G21G22G23
  22988847.5584     274336.36249    212405.97647                  22988847.8314
        42.7504         34.7504
  22057988.9564      90629.77749     65198.09447                  22057988.3664
        47.7504         38.5004
  21729929.8624     894526.04549    681162.92348                  21729928.5154
        47.7504         40.0004
  20173218.9874    -616499.47249   -473415.59548                  20173217.3744
        50.5004         44.7504
  20315426.9014    -365024.32149   -281055.41148                  20315425.3474
        49.0004         43.7504
  20222262.8864    -842876.03249   -647112.38848                  20222259.7654
        47.5004         44.2504
  22181636.6444   -1456300.91649  -1123749.88848                  22181636.1794
        47.2504         39.5004
  23234100.6904     260061.72749    195285.00547                  23234101.0814
        42.0004         30.2504
  22445024.8084     808003.26949    616487.01447                  22445023.5774
        47.0004         39.2504
 02  7 10 16 52 29.9990000  0  9G29G26G 6G15G17G18G21G22G23
  22990607.6754     283583.16349    219611.25247                  22990607.0974
        44.0004         35.0004
  22058701.5974      94373.83949     68115.51947                  22058700.4564
        47.5004         38.0004
  21735310.2374     922800.19349    703194.68848                  21735309.3124
        47.7504         40.5004
  20169336.9094    -636900.64249   -489312.62048                  20169335.1244
        50.5004         44.5004
  20313048.6594    -377522.30049   -290794.10048                  20313046.3354
        48.2504         44.2504
  20217147.6984    -869755.75649   -668057.63348                  20217144.1794
        47.7504         44.2504
  22172651.6904   -1503516.00649  -1160540.85848                  22172651.9874
        48.2504         40.0004
  23235679.5734     268360.50249    201751.55747                  23235679.6834
        45.0004         30.0004
  22449743.4484     832799.91249    635809.05447                  22449742.0734
        47.7504         39.0004
 02  7 10 16 52 44.9990000  0  9G29G26G 6G15G17G18G21G22G23
  22992376.0264     292874.10149    226850.92647                  22992375.1324
        43.5004         35.0004
  22059428.8084      98194.84049     71092.91747                  22059428.2184
        48.2504         38.5004
  21740692.3784     951081.77749    725232.24748                  21740691.2414
        48.0004         40.0004
  20165452.4014    -657313.86249   -505219.02148                  20165450.2614
        51.2504         44.7504
  20310666.2454    -390039.94649   -300548.11248                  20310664.7924
        49.2504         44.0004
  20212039.5264    -896600.52249   -688975.62248                  20212036.1084
        47.7504         44.0004
  22163665.5974   -1550739.52049  -1197338.36548                  22163664.9014
        48.0004         39.5004
  23237263.7764     276684.37949    208237.67347                  23237263.5584
        45.7504         29.0004
  22454454.6054     857555.34749    655098.97847                  22454453.2414
        47.0004         38.7504
 02  7 10 16 52 59.9990000  0  9G29G26G 6G15G17G18G21G22G23
  22994153.2144     302215.97749    234130.29047                  22994152.4684
        43.5004         34.5004
  22060172.0034     102099.47049     74135.48647                  22060171.4804
        48.7504         39.0004
  21746076.5344     979377.59049    747280.89548                  21746075.8554
        48.0004         40.2504
  20161566.9484    -677732.08049   -521129.33348                  20161565.3824
        49.5004         44.7504
  20308282.1124    -402570.19149   -310311.95348                  20308280.6204
        49.5004         43.5004
  20206938.9644    -923403.40549   -709860.98148                  20206935.7654
        48.0004         44.0004
  22154678.9334   -1597964.44949  -1234136.99748                  22154678.0264
        47.5004         40.0004
  23238853.6204     285040.02349    214748.52847                  23238853.6244
        45.2504         30.0004
  22459158.2844     882276.30149    674362.05547                  22459157.5504
        47.0004         38.7504
 02  7 10 16 53 14.9990000  0  9G29G26G 6G15G17G18G21G22G23
  22995940.4804     311605.71849    241446.97247                  22995939.1944
        45.0004         34.5004
  22060930.3554     106084.82549     77240.94947                  22060929.7414
        47.5004         38.0004
  21751463.2844    1007684.59149    769338.26248                  21751462.1904
        47.5004         40.5004
  20157679.9174    -698158.04849   -537045.66648                  20157678.0544
        51.5004         45.5004
  20305894.5114    -415115.70749   -320087.67748                  20305892.7024
        48.5004         44.0004
  20201845.8394    -950167.21849   -730715.89448                  20201842.6054
        47.5004         44.5004
  22145691.4404   -1645193.39249  -1270938.74148                  22145690.6164
        46.7504         40.2504
  23240449.7144     293424.29249    221281.67947                  23240449.6514
        46.0004         30.0004
  22463855.1674     906959.70749    693595.84747                  22463854.9214
        46.7504         39.0004
 02  7 10 16 53 29.9990000  0  9G29G26G 6G15G17G18G21G22G23
  22997736.6284     321047.22449    248803.97947                  22997735.8584
        44.7504         35.2504
  22061704.8234     110154.78249     80412.33547                  22061703.6944
        49.0004         38.5004
  21756852.7144    1036006.55849    791407.28648                  21756852.2844
        47.5004         40.0004
  20153792.4804    -718587.80249   -552964.97748                  20153790.5304
        50.5004         44.5004
  20303505.3314    -427672.58749   -329872.26948                  20303503.5584
        49.2504         44.0004
  20196761.3394    -976888.05249   -751537.32548                  20196758.0654
        48.7504         44.0004
  22136704.0264   -1692422.31549  -1307740.48048                  22136703.3704
        47.7504         39.7504
  23242050.4254     301840.82749    227839.98347                  23242051.0584
        44.7504         31.5004
  22468546.1674     931609.24149    712803.24847                  22468545.9214
        46.0004         38.2504
 02  7 10 16 53 44.9990000  0  9G29G26G 6G15G17G18G21G22G23
  22999543.5114     330540.54549    256201.35347                  22999542.4564
        45.0004         35.2504
  22062495.3394     114309.47449     83649.76247                  22062494.4374
        48.7504         38.0004
  21762244.9564    1064343.61349    813488.07048                  21762244.2414
        47.0004         39.5004
  20149904.1284    -739020.97149   -568886.92048                  20149901.7144
        51.5004         44.5004
  20301113.6904    -440240.23949   -339665.25148                  20301112.1124
        50.5004         44.0004
  20191684.7144   -1003565.50349   -772324.94748                  20191681.9524
        49.5004         44.0004
  22127716.4404   -1739650.78549  -1344541.86448                  22127716.3824
        48.0004         40.0004
  23243659.4174     310289.74749    234423.52547                  23243659.4254
        44.0004         31.0004
  22473230.0344     956225.01549    731984.35747                  22473230.2924
        47.0004         38.7504
 02  7 10 16 53 59.9990000  0  9G29G26G 6G15G17G18G21G22G23
  23001360.4094     340086.94849    263640.09147                  23001359.3554
        43.0004         34.7504
  22063302.1204     118550.17049     86954.17347                  22063301.5974
        47.0004         37.2504
  21767640.3004    1092696.90849    835581.50548                  21767639.8314
        47.5004         40.0004
  20146014.9014    -759455.92249   -584810.27648                  20146013.1204
        49.5004         44.5004
  20298720.4094    -452817.39749   -349465.64648                  20298718.3124
        51.0004         43.7504
  20186616.5894   -1030198.23849   -793077.72948                  20186614.0074
        49.7504         44.0004
  22118729.3864   -1786877.46249  -1381341.84248                  22118728.9524
        48.0004         40.0004
  23245272.5424     318772.14749    241033.15347                  23245272.7454
        44.7504         30.5004
  22477908.3314     980808.30249    751140.12947                  22477907.9764
        46.2504         38.7504
 02  7 10 16 54 14.9990000  0  9G29G26G 6G15G17G18G21G22G23
  23003187.6754     349687.39649    271120.93947                  23003185.5814
        43.7504         34.7504
  22064125.4334     122877.81649     90326.36447                  22064125.2184
        46.0004         37.5004
  21773039.2694    1121067.33449    857688.29048                  21773038.7614
        47.7504         40.0004
  20142126.7064    -779891.61749   -600734.18848                  20142124.8624
        51.2504         44.2504
  20296325.2304    -465402.77749   -359272.44748                  20296323.5854
        50.5004         44.0004
  20181556.9804   -1056785.38649   -813794.98148                  20181553.9764
        49.0004         44.2504
  22109743.0814   -1834101.24349  -1418139.58048                  22109742.4804
        48.7504         40.2504
  23246894.1674     327288.85349    247669.53247                  23246893.2964
        43.5004         30.2504
  22482580.3234    1005359.84949    770271.19147                  22482579.7334
        47.7504         38.5004
 02  7 10 16 54 29.9990000  0  9G29G26G 6G15G17G18G21G22G23
  23005024.7374     359345.53249    278646.75847                  23005023.8354
        43.2504         34.5004
  22064966.2764     127296.26649     93769.30347                  22064965.4804
        46.2504         37.7504
  21778442.0264    1149458.63149    879811.34648                  21778441.3864
        47.5004         39.7504
  20138238.8004    -800323.95249   -616655.50048                  20138236.7924
        48.5004         44.5004
  20293929.8234    -477992.42449   -369082.56548                  20293928.0694
        51.0004         43.5004
  20176507.0974   -1083322.87649   -834473.54348                  20176504.7024
        49.7504         44.5004
  22100758.1124   -1881317.88149  -1454931.74448                  22100757.4254
        48.0004         40.5004
  23248522.2374     335843.48049    254335.41747                  23248521.0154
        42.0004         30.2504
  22487247.1594    1029883.53449    789380.54247                  22487246.8744
        45.7504         38.2504
 02  7 10 16 54 44.9990000  0  9G29G26G 6G15G17G18G21G22G23
  23006873.1594     369057.89549    286214.81147                  23006871.8624
        44.0004         34.5004
  22065823.9404     131801.79849     97280.09047                  22065823.1754
        46.0004         38.2504
  21783847.5264    1177867.11449    901947.78748                  21783847.6404
        47.2504         40.0004
  20134350.5654    -820756.33949   -632576.83948                  20134348.5624
        50.5004         44.5004
  20291532.5034    -490589.68249   -378898.62048                  20291530.5774
        51.0004         43.7504
  20171466.3314   -1109814.20649   -855116.13148                  20171463.0654
        50.0004         44.5004
  22091773.7844   -1928530.89549  -1491721.08248                  22091774.0194
        48.2504         40.5004
  23250156.2144     344432.37949    261028.02147                  23250156.3154
        41.0004         30.0004
  22491907.5344    1054375.62049    808465.25847                  22491907.2654
        47.0004         39.0004
 02  7 10 16 54 59.9990000  0  9G29G26G 6G15G17G18G21G22G23
  23008732.2844     378829.51649    293829.04647                  23008731.7694
        43.0004         35.0004
  22066698.9564     136399.59849    100862.78147                  22066697.9524
        46.7504         38.2504
  21789258.0654    1206297.90849    924101.61348                  21789257.9764
        47.5004         39.5004
  20130463.1204    -841183.41149   -648494.04748                  20130461.1204
        50.2504         44.2504
  20289134.7614    -503189.19049   -388716.42848                  20289133.2694
        51.0004         43.7504
  20166434.9404   -1136254.01749   -875718.57648                  20166432.1324
        50.2504         44.5004
  22082791.0654   -1975734.91849  -1528503.41048                  22082791.3474
        48.0004         40.0004
  23251798.1284     353060.44149    267751.14347                  23251798.3514
        43.0004         29.7504
  22496563.6054    1078841.13849    827529.29047                  22496562.5934
        47.2504         39.0004
 02  7 10 16 55 14.9990000  0  9G29G26G 6G15G17G18G21G22G23
  23010602.3234     388658.13349    301487.67547                  23010602.0584
        44.7504         34.5004
  22067591.1904     141087.60949    104515.76947                  22067590.2764
        48.2504         37.5004
  21794672.4404    1234748.83649    946271.13448                  21794671.6204
        47.7504         39.7504
  20126576.7924    -861607.14149   -664408.64848                  20126575.0424
        49.7504         44.5004
  20286736.7694    -515792.88149   -398537.49548                  20286735.0264
        52.0004         43.7504
  20161413.0584   -1162644.30749   -896282.44048                  20161410.1324
        51.0004         44.2504
  22073809.7374   -2022931.85149  -1565280.21948                  22073809.6794
        48.5004         40.2504
  23253447.0974     361725.58749    274503.17147                  23253447.1474
        42.5004         30.5004
  22501213.5654    1103277.96649    846570.95547                  22501213.4374
        46.2504         38.5004
 02  7 10 16 55 29.9990000  0  9G29G26G 6G15G17G18G21G22G23
  23012483.4094     398539.49549    309187.40747                  23012482.0734
        44.5004         34.5004
  22068499.5814     145861.45249    108235.62947                  22068498.2924
        48.7504         37.5004
  21800089.0584    1263215.38049    968452.80348                  21800088.9214
        47.0004         39.5004
  20122690.3784    -882031.60349   -680323.81948                  20122688.3744
        50.5004         44.2504
  20284336.7304    -528404.82249   -408364.98348                  20284334.5934
        52.5004         43.7504
  20156399.8394   -1188989.30349   -916811.01548                  20156396.5264
        50.5004         44.5004
  22064829.4564   -2070125.91949  -1602054.80448                  22064828.4684
        48.5004         39.7504
  23255101.5114     370423.11549    281280.43647                  23255102.1944
        40.2504         30.7504
  22505857.7144    1127681.57449    865586.72247                  22505856.7694
        45.5004         38.7504
 02  7 10 16 55 44.9990000  0  9G29G26G 6G15G17G18G21G22G23
  23014374.6834     408479.72349    316933.04247                  23014374.0194
        43.2504         34.0004
  22069425.6834     150727.24549    112027.14547                  22069424.4054
        48.2504         37.5004
  21805510.7694    1291703.82049    990651.54348                  21805510.2184
        47.5004         39.7504
  20118804.3554    -902450.30249   -696234.50148                  20118802.4564
        50.7504         44.5004
  20281936.0424    -541018.60449   -418193.90648                  20281934.7844
        51.7504         44.0004
  20151395.9644   -1215282.77749   -937299.43048                  20151393.2654
        51.0004         44.5004
  22055850.0894   -2117310.60649  -1638822.06348                  22055849.6594
        47.7504         39.7504
  23256764.2534     379159.33149    288087.85247                  23256764.8084
        42.2504         30.7504
  22510496.0654    1152058.21249    884581.48147                  22510495.8784
        46.2504         38.5004
 02  7 10 16 55 59.9990000  0  9G29G26G 6G15G17G18G21G22G23
  23016278.1364     418482.92249    324727.71647                  23016277.9524
        44.0004         34.5004
  22070369.5194     155689.02549    115893.45647                  22070368.2304
        49.5004         37.7504
  21810936.8944    1320218.02749   1012870.36448                  21810935.5934
        48.0004         39.7504
  20114921.0654    -922859.20949   -712137.55548                  20114919.1554
        50.5004         44.5004
  20279536.4174    -553630.07649   -428021.04248                  20279534.9174
        52.5004         44.0004
  20146403.5344   -1241520.64649   -957744.52348                  20146400.3434
        51.2504         44.2504
  22046873.8154   -2164481.65049  -1675578.69748                  22046873.5114
        47.7504         40.0004
  23258435.0734     387937.91549    294928.24647                  23258435.6754
        40.5004         31.2504
  22515130.7614    1176411.75549    903558.24747                  22515130.0974
        47.0004         38.5004
 02  7 10 16 56 14.9990000  0  9G29G26G 6G15G17G18G21G22G23
  23018193.8394     428547.21449    332569.99947                  23018192.5264
        43.7504         34.0004
  22071331.7534     160745.10149    119833.24747                  22071330.8194
        49.0004         37.5004
  21816367.3474    1348756.22749   1035107.87547                  21816366.6404
        47.0004         39.0004
  20111038.8864    -943259.70749   -728034.05048                  20111036.8584
        51.0004         44.5004
  20277136.7694    -566240.71349   -437847.52048                  20277135.2334
        51.7504         43.7504
  20141420.5894   -1267704.40849   -978147.45348                  20141417.8084
        50.7504         44.5004
  22037899.6444   -2211640.58249  -1712325.90048                  22037899.0544
        48.2504         40.5004
  23260113.1674     396757.04949    301800.26147                  23260113.5194
        41.0004         31.0004
  22519759.7614    1200740.45649    922515.65947                  22519759.2924
        46.5004         37.7504
 02  7 10 16 56 29.9990000  0  9G29G26G 6G15G17G18G21G22G23
  23020119.9094     438669.36249    340457.36647                  23020118.3584
        43.0004         34.5004
  22072311.1754     165892.12249    123843.90747                  22072310.4564
        49.0004         38.2504
  21821801.8944    1377315.15949   1057361.54447                  21821800.6904
        47.2504         39.0004
  20107157.4644    -963654.84849   -743926.36848                  20107155.9874
        50.5004         44.5004
  20274736.5194    -578853.53249   -447675.69548                  20274734.9404
        52.5004         44.0004
  20136448.0264   -1293837.13249   -998510.60248                  20136445.0624
        51.0004         44.2504
  22028927.0654   -2258790.28449  -1749065.90648                  22028926.4914
        47.5004         40.5004
  23261798.4484     405613.38149    308701.27747                  23261798.7924
        40.7504         30.0004
  22524384.3624    1225040.95349    941451.09447                  22524383.5504
        47.5004         38.0004
 02  7 10 16 56 44.9990000  0  9G29G26G 6G15G17G18G21G22G23
  23022058.2224     448856.53549    348395.40847                  23022057.5694
        43.5004         33.5004
  22073309.3234     171137.46149    127931.16547                  22073308.1554
        49.5004         38.0004
  21827242.1124    1405902.01549   1079636.97547                  21827241.3554
        47.2504         38.7504
  20103279.4564    -984037.13649   -759808.67648                  20103277.5464
        50.5004         44.5004
  20272337.4484    -591460.99349   -457499.69948                  20272335.9834
        52.5004         44.2504
  20131486.2764   -1319911.44149  -1018828.25848                  20131483.6404
        51.5004         44.5004
  22019958.2924   -2305923.47249  -1785793.04748                  22019958.0774
        48.7504         40.5004
  23263492.7924     414513.98449    315636.75847                  23263492.5854
        41.5004         31.7504
  22529004.5034    1249320.51449    960370.21147                  22529004.2144
        47.7504         38.7504
 02  7 10 16 56 59.9990000  0  9G29G26G 6G15G17G18G21G22G23
  23024008.4014     459106.25349    356382.19647                  23024008.2494
        42.5004         32.5004
  22074326.0814     176478.48849    132092.99147                  22074324.9834
        49.2504         37.7504
  21832686.6984    1434514.16749   1101932.11247                  21832685.3474
        47.2504         39.0004
  20099402.4874   -1004408.85149   -775682.75248                  20099400.5544
        50.5004         44.5004
  20269938.9484    -604065.38649   -467321.32148                  20269936.8044
        52.2504         44.0004
  20126534.7144   -1345929.77849  -1039102.28148                  20126531.4724
        51.2504         44.5004
  22010991.6904   -2353042.35349  -1822509.02648                  22010991.6164
        48.0004         40.0004
  23265193.8624     423456.39849    322604.81747                  23265194.4644
        42.0004         31.5004
  22533620.6054    1273576.50649    979270.96847                  22533619.1594
        47.0004         38.7504
 02  7 10 16 57 14.9990000  0  9G29G26G 6G15G17G18G21G22G23
  23025970.9954     469420.02349    364418.87347                  23025970.3314
        44.2504         33.5004
  22075360.7144     181916.90349    136330.71347                  22075359.5654
        49.7504         36.7504
  21838135.8234    1463153.11449   1124248.13148                  21838135.2024
        47.0004         39.5004
  20095528.1984   -1024768.20049   -791547.18248                  20095526.6204
        50.0004         44.7504
  20267541.3864    -616665.06749   -477139.24748                  20267539.3194
        51.5004         43.7504
  20121594.4254   -1371890.43749  -1059331.36248                  20121591.5894
        51.0004         44.2504
  22002027.9174   -2400145.23149  -1859212.54648                  22002027.8084
        48.2504         40.5004
  23266904.4094     432441.79349    329606.38847                  23266904.3584
        42.2504         32.0004
  22538232.1984    1297810.40449    998154.50347                  22538231.1054
        47.2504         38.2504
 02  7 10 16 57 29.9990000  0  9G29G26G 6G15G17G18G21G22G23
  23027946.1594     479798.98449    372506.35547                  23027944.9604
        43.7504         33.0004
  22076414.2534     187453.76549    140645.14147                  22076413.5114
        49.7504         37.5004
  21843591.4874    1491820.01449   1146585.92548                  21843590.6754
        46.7504         39.7504
  20091656.6594   -1045113.76449   -807400.86848                  20091655.0264
        49.7504         44.5004
  20265144.9804    -629258.48149   -486952.30648                  20265143.0894
        52.2504         43.7504
  20116665.7144   -1397792.13749  -1079514.49448                  20116662.7334
        51.0004         44.0004
  21993067.9094   -2447230.67849  -1895902.47648                  21993067.8904
        47.2504         40.5004
  23268622.2924     441471.29049    336642.31447                  23268622.4954
        43.0004         31.2504
  22542839.7844    1322023.36249   1017021.72747                  22542838.8084
        47.0004         38.5004
 02  7 10 16 57 44.9990000  0  9G29G26G 6G15G17G18G21G22G23
  23029933.3084     490239.55949    380641.87947                  23029932.5074
        45.5004         33.2504
  22077486.1124     193085.54749    145033.52247                  22077485.2264
        49.5004         37.2504
  21849051.7304    1520511.24049   1168942.69148                  21849050.8274
        47.5004         40.0004
  20087787.0194   -1065448.96649   -823246.49048                  20087784.7884
        50.2504         44.2504
  20262749.0974    -641848.97649   -496763.09348                  20262747.2374
        52.2504         44.0004
  20111747.6204   -1423638.26149  -1099654.33548                  20111744.3624
        51.5004         44.2504
  21984110.6364   -2494302.02349  -1932581.43348                  21984110.9054
        46.2504         40.2504
  23270349.1284     450541.25049    343709.78547                  23270348.5584
        41.7504         31.0004
  22547442.6754    1346211.76449   1035869.81547                  22547441.7414
        47.7504         38.5004
 02  7 10 16 57 59.9990000  0  9G29G26G 6G15G17G18G21G22G23
  23031932.0734     500743.01249    388826.35847                  23031930.8974
        44.0004         33.5004
  22078575.8474     198813.55249    149496.88247                  22078574.9804
        49.5004         37.7504
  21854516.1514    1549228.10249   1191319.41547                  21854515.5074
        47.0004         39.2504
  20083919.4954   -1085772.26049   -839082.82548                  20083917.5584
        51.0004         44.5004
  20260353.9644    -654434.90849   -506570.31648                  20260352.0384
        52.5004         44.0004
  20106839.7614   -1449427.35049  -1119749.73248                  20106836.8744
        50.7504         44.2504
  21975156.6284   -2541357.75549  -1969248.21748                  21975156.2024
        48.7504         41.0004
  23272082.1514     459652.87249    350809.70647                  23272081.9254
        42.7504         30.5004
  22552041.0504    1370376.95649   1054699.80147                  22552040.7414
        47.2504         38.7504
 02  7 10 16 58 14.9990000  0  9G29G26G 6G15G17G18G21G22G23
  23033943.3784     511311.39749    397061.47947                  23033942.1944
        45.7504         33.0004
  22079684.9254     204639.81749    154036.81947                  22079683.7144
        49.7504         38.0004
  21859985.8554    1577972.52549   1213717.62947                  21859985.2724
        46.5004         39.0004
  20080055.0264   -1106081.34949   -854908.09448                  20080052.7104
        51.2504         44.0004
  20257960.0504    -667014.20249   -516372.37848                  20257958.2534
        51.7504         43.7504
  20101943.3944   -1475157.37349  -1139799.09548                  20101940.8004
        52.0004         44.5004
  21966205.0344   -2588395.67749  -2005901.11648                  21966204.9764
        48.5004         40.7504
  23273824.5894     468807.99149    357943.56547                  23273824.5624
        42.5004         30.0004
  22556635.1364    1394520.79449   1073513.18047                  22556635.0624
        47.0004         39.0004
 02  7 10 16 58 29.9990000  0  9G29G26G 6G15G17G18G21G22G23
  23035966.2224     521944.73949    405347.15547                  23035965.5464
        46.0004         33.0004
  22080811.7924     210564.33649    158653.32047                  22080811.6794
        49.0004         37.7504
  21865460.8154    1606744.60049   1236137.38248                  21865461.0624
        47.0004         39.5004
  20076192.9334   -1126375.80149   -870721.95548                  20076191.0264
        51.0004         44.5004
  20255568.0264    -679586.44149   -526168.92748                  20255566.2454
        52.5004         44.2504
  20097058.8004   -1500827.95549  -1159802.14048                  20097055.9644
        51.0004         44.5004
  21957257.7224   -2635415.19249  -2042539.66748                  21957257.2924
        48.0004         40.7504
  23275574.1054     478006.62549    365111.28747                  23275575.1874
        41.7504         31.2504
  22561225.9404    1418643.37349   1092309.97747                  22561225.6014
        48.0004         39.0004
 02  7 10 16 58 44.9990000  0  8G29G26G 6G15G17G18G21G23
  23038002.9094     532644.15649    413684.35447                  23038002.1084
        46.7504         33.5004
  22081958.3234     216588.29749    163347.30947                  22081957.8974
        48.5004         37.2504
  21870941.6124    1635545.31649   1258579.44648                  21870940.7574
        46.2504         39.5004
  20072334.0814   -1146654.30749   -886523.39848                  20072332.2844
        52.5004         44.5004
  20253177.3154    -692150.25049   -535958.92148                  20253175.4644
        52.0004         44.0004
  20092185.2224   -1526437.91849  -1179757.96248                  20092182.3624
        50.2504         44.2504
  21948314.1594   -2682415.12449  -2079162.98248                  21948313.7374
        48.0004         40.0004
  22565812.2304    1442745.79249   1111091.04647                  22565811.7764
        47.0004         38.7504
 02  7 10 16 58 59.9990000  0  8G29G26G 6G15G17G18G21G23
  23040051.9484     543410.53049    422073.71947                  23040051.3004
        46.7504         33.7504
  22083123.7764     222712.66249    168119.51547                  22083122.9874
        48.5004         37.2504
  21876428.2374    1664375.68549   1281044.62448                  21876428.2374
        47.5004         39.5004
  20068478.3784   -1166915.68549   -902311.48848                  20068476.6554
        52.0004         44.5004
  20250787.7374    -704704.52249   -545741.47648                  20250786.2494
        52.0004         43.7504
  20087323.6754   -1551986.07349  -1199665.61748                  20087321.1324
        50.7504         44.5004
  21939374.1594   -2729394.37049  -2115770.16548                  21939373.6834
        48.2504         40.2504
  22570394.9954    1466828.96249   1129857.13247                  22570394.7574
        46.7504         38.5004
 02  7 10 16 59 14.9990000  0  9G29G26G 6G15G17G18G21G 3G23
  23042112.6054     554244.21349    430515.54147                  23042112.7494
        47.0004         34.2504
  22084307.9954     228937.69049    172970.17547                  22084307.7724
        49.0004         37.5004
  21881920.0974    1693235.89549   1303533.05348                  21881919.5424
        48.0004         39.5004
  20064626.2374   -1187159.33649   -918085.76548                  20064624.6944
        52.5004         44.2504
  20248400.9484    -717248.47949   -555515.99048                  20248399.1834
        52.0004         44.0004
  20082473.7064   -1577471.95149  -1219524.74148                  20082470.9954
        51.2504         44.7504
  21930438.0114   -2776352.24849  -2152360.69148                  21930437.8154
        48.0004         39.7504
  23186844.7224    -145783.13259   -102519.47057                  23186845.2924
        42.5004         30.7504
  22574974.4644    1490893.20249   1148608.47047                  22574974.4404
        47.2504         38.5004
 02  7 10 16 59 29.9990000  0  9G29G26G 6G15G17G18G21G 3G23
  23044187.4804     565143.13849    439008.20347                  23044186.1874
        47.2504         33.7504
  22085511.7694     235261.47049    177897.77947                  22085510.8904
        49.0004         37.5004
  21887417.7454    1722123.96149   1326043.17747                  21887416.9644
        48.0004         39.0004
  20060777.2764   -1207387.05349   -933847.62748                  20060774.9994
        51.2504         44.2504
  20246015.5894    -729783.95549   -565283.91748                  20246014.0154
        50.7504         43.5004
  20077635.7304   -1602897.57249  -1239336.92148                  20077632.5734
        51.0004         44.2504
  21921506.3314   -2823290.41049  -2188935.86448                  21921505.5114
        48.2504         40.5004
  23175015.4094    -207946.12249   -150958.13847                  23175015.5464
        41.5004         28.7504
  22579549.9484    1514936.48649   1167343.47047                  22579549.4684
        47.5004         38.2504
 02  7 10 16 59 44.9990000  0  9G29G26G 6G15G17G18G21G 3G23
  23046272.9874     576106.00749    447550.66147                  23046272.9954
        46.2504         33.2504
  22086733.8784     241682.63149    182901.27247                  22086733.3354
        49.5004         37.2504
  21892919.8154    1751038.50849   1348573.95347                  21892919.4014
        47.2504         39.2504
  20056930.8154   -1227599.80449   -949597.82748                  20056929.0384
        52.2504         44.5004
  20243631.1204    -742312.09549   -575046.11148                  20243629.7304
        52.0004         43.5004
  20072808.5114   -1628263.97149  -1259102.94448                  20072805.1474
        51.5004         44.0004
  21912577.6284   -2870210.03249  -2225496.58648                  21912577.5224
        48.5004         40.7504
  23163187.7844    -270103.12149   -199392.16147                  23163187.8944
        42.2504         29.0004
  22584120.5974    1538957.44849   1186061.07647                  22584120.3084
        45.7504         38.2504
 02  7 10 16 59 59.9990000  0  9G29G26G 6G15G17G18G21G 3G23
  23048371.7064     587135.36749    456144.96447                  23048372.3124
        47.0004         33.2504
  22087974.9644     248203.77749    187982.67747                  22087974.4524
        49.2504         37.0004
  21898427.7144    1779982.05749   1371127.33348                  21898426.7924
        48.0004         39.5004
  20053087.8154   -1247794.85949   -965334.22448                  20053086.1084
        52.2504         44.5004
  20241249.2304    -754830.05149   -584800.36248                  20241247.4874
        51.0004         43.5004
  20067992.8554   -1653568.57349  -1278820.80848                  20067989.8944
        50.2504         43.7504
  21903653.4644   -2917108.45849  -2262040.79548                  21903653.1324
        48.7504         40.5004
  23151361.5504    -332251.06949   -247819.08047                  23151361.5734
        43.0004         29.5004
  22588688.1674    1562958.56149   1204763.21547                  22588687.8354
        44.5004         38.0004
 02  7 10 17  0 14.9990000  0  9G29G26G 6G15G17G18G21G 3G23
  23050483.8084     598233.86949    464793.12447                  23050483.4724
        46.5004         33.5004
  22089234.9954     254827.50149    193144.00047                  22089234.4684
        48.5004         37.2504
  21903941.0584    1808957.25049   1393705.36248                  21903940.7024
        47.2504         39.5004
  20049248.9874   -1267969.23949   -981054.53648                  20049246.7804
        52.5004         44.7504
  20238869.6054    -767335.00849   -594544.49848                  20238868.4214
        52.0004         43.5004
  20063190.0504   -1678808.55649  -1298488.32848                  20063187.5304
        50.5004         44.0004
  21894733.5424   -2963982.72149  -2298566.17548                  21894732.7884
        49.5004         40.5004
  23139537.4174    -394386.69749   -296236.42747                  23139538.0504
        43.0004         30.7504
  22593252.4094    1586942.46449   1223451.94947                  22593251.4294
        47.2504         37.2504
 02  7 10 17  0 29.9990000  0  9G29G26G 6G15G17G18G21G 3G23
  23052609.3864     609401.45549    473495.13647                  23052608.5224
        47.2504         33.5004
  22090515.1984     261553.76249    198385.22247                  22090513.9294
        49.2504         36.2504
  21909461.0974    1837963.98049   1416307.96448                  21909460.8784
        48.0004         39.5004
  20045413.6284   -1288122.80549   -996758.60948                  20045411.7104
        52.7504         44.5004
  20236492.6594    -779826.62249   -604278.23548                  20236490.7694
        51.5004         43.7504
  20058399.5034   -1703983.82349  -1318105.40948                  20058396.5264
        50.5004         44.0004
  21885818.1754   -3010832.65349  -2335072.59848                  21885817.4804
        48.7504         41.0004
  23127715.7374    -456509.61649   -344643.87647                  23127716.0464
        43.0004         31.0004
  22597812.8004    1610909.00749   1242127.16147                  22597812.5544
        47.2504         37.7504
 02  7 10 17  0 44.9990000  0  9G29G26G 6G15G17G18G21G 3G23
  23054747.1594     620636.90549    482250.02547                  23054746.7414
        46.5004         33.0004
  22091814.1204     268381.31849    203705.39447                  22091813.3624
        48.7504         36.5004
  21914986.6594    1867000.98949   1438934.16048                  21914986.9254
        47.0004         39.5004
  20041582.4954   -1308256.51749  -1012447.21148                  20041580.5504
        53.5004         44.7504
  20234118.0344    -792305.81549   -614002.29448                  20234116.1634
        51.7504         44.0004
  20053620.8784   -1729095.45249  -1337672.91648                  20053617.5544
        51.5004         44.0004
  21876907.5584   -3057659.15449  -2371560.74748                  21876906.9644
        48.7504         40.7504
  23115896.5504    -518620.54049   -393041.96947                  23115896.4174
        43.2504         31.2504
  22602369.7924    1634857.03049   1260787.92747                  22602369.9334
        47.7504         37.5004
 02  7 10 17  0 59.9990000  0  9G29G26G 6G15G17G18G21G 3G23
  23056897.8944     631943.31549    491060.18447                  23056897.8974
        46.5004         33.0004
  22093133.1124     275313.41349    209107.01547                  22093132.8044
        49.2504         36.7504
  21920518.6904    1896071.49149   1461586.44847                  21920518.8124
        47.2504         39.0004
  20037755.6444   -1328366.89049  -1028117.64048                  20037753.4484
        51.5004         44.5004
  20231746.1444    -804769.24349   -623714.06848                  20231744.7264
        52.0004         44.2504
  20048855.0194   -1754140.03749  -1357188.18148                  20048852.3314
        50.7504         44.2504
  21868001.6284   -3104458.94749  -2408028.10548                  21868001.2064
        49.0004         40.5004
  23104080.7614    -580715.73649   -441427.81347                  23104080.4294
        44.0004         31.5004
  22606924.4874    1658789.70349   1279436.75847                  22606923.4834
        45.2504         37.5004
 02  7 10 17  1 14.9990000  0  9G29G26G 6G15G17G18G21G 3G23
  23059062.6594     643314.50749    499920.83647                  23059062.0544
        46.2504         33.0004
  22094471.4874     282343.88749    214585.27447                  22094470.8434
        48.5004         36.5004
  21926056.0814    1925169.20149   1484259.93647                  21926055.7964
        47.7504         39.2504
  20033931.9254   -1348459.90849  -1043774.53848                  20033929.6404
        52.5004         44.7504
  20229376.2694    -817222.79049   -633418.14348                  20229375.0464
        52.0004         43.5004
  20044101.1984   -1779123.63149  -1376655.92348                  20044098.1244
        51.0004         44.0004
  21859099.8394   -3151237.64049  -2444479.02148                  21859099.1324
        49.5004         41.0004
  23092265.5584    -642800.93249   -489805.90147                  23092265.4054
        44.0004         32.0004
  22611474.1204    1682700.80049   1298068.76247                  22611473.5814
        47.2504         37.5004
 02  7 10 17  1 29.9990000  0  9G29G26G 6G15G17G18G21G 3G23
  23061239.5814     654754.00149    508834.71047                  23061239.6404
        46.5004         34.5004
  22095829.1204     289476.21749    220142.92847                  22095827.9014
        48.0004         36.7504
  21931598.3004    1954297.60449   1506957.35947                  21931597.8354
        47.0004         38.0004
  20030112.1594   -1368531.72949  -1059414.91248                  20030110.3584
        51.7504         44.2504
  20227009.1984    -829662.56049   -643111.47648                  20227007.7064
        52.2504         43.7504
  20039358.9484   -1804042.49149  -1396073.20548                  20039356.1714
        50.7504         44.5004
  21850202.7764   -3197991.58449  -2480910.64048                  21850201.7494
        48.2504         40.5004
  23080453.7694    -704871.99449   -538172.90947                  23080454.0584
        42.5004         31.5004
  22616021.3784    1706593.88449   1316686.72647                  22616020.2574
        48.2504         37.7504
 02  7 10 17  1 44.9990000  0  9G29G26G 6G15G17G18G21G 3G23
  23063430.7144     666266.89849    517805.77647                  23063429.7224
        47.2504         34.2504
  22097206.3234     296715.47549    225783.89347                  22097205.3154
        48.7504         37.2504
  21937148.6594    1983461.78349   1529682.65047                  21937147.7494
        47.2504         38.0004
  20026297.9724   -1388577.00549  -1075034.62148                  20026296.1714
        52.0004         44.2504
  20224645.4644    -842083.31049   -652789.98848                  20224644.1164
        51.5004         44.0004
  20034630.3394   -1828891.47349  -1415436.05748                  20034627.4054
        51.0004         44.2504
  21841311.6674   -3244715.54149  -2517318.90648                  21841310.7654
        48.5004         40.5004
  23068645.9954    -766923.27549   -586524.54947                  23068646.0544
        44.2504         31.0004
  22620565.5814    1730474.04349   1335294.61847                  22620565.0264
        48.0004         38.0004
 02  7 10 17  1 59.9990000  0  9G29G26G 6G15G17G18G21G 3G23
  23065634.1054     677846.38249    526828.73147                  23065633.7454
        47.5004         33.0004
  22098603.3784     304054.92249    231502.92047                  22098602.3354
        49.0004         37.0004
  21942703.7374    2012654.87649   1552430.46347                  21942703.3044
        48.0004         37.5004
  20022487.1904   -1408602.26849  -1090638.72448                  20022485.0384
        52.2504         44.7504
  20222284.6594    -854491.63349   -662458.82148                  20222282.7144
        52.2504         44.0004
  20029913.6754   -1853677.25549  -1434749.65348                  20029910.7844
        51.0004         44.0004
  21832424.7374   -3291416.09549  -2553708.92348                  21832424.1124
        49.2504         40.7504
  23056840.6834    -828961.20049   -634865.76447                  23056840.3084
        44.5004         31.2504
  22625105.9804    1754334.36549   1353887.06147                  22625105.7264
        48.7504         38.0004
 02  7 10 17  2 14.9990000  0  9G29G26G 6G15G17G18G21G 3G23
  23067850.3084     689492.79549    535903.83947                  23067849.7964
        47.0004         32.5004
  22100018.7144     311494.86749    237300.27447                  22100018.1714
        48.7504         37.5004
  21948264.7614    2041877.22949   1575201.06847                  21948264.3624
        47.5004         38.2504
  20018680.4254   -1428606.92649  -1106226.77348                  20018677.9874
        52.7504         44.2504
  20219925.7064    -866886.79149   -672117.40548                  20219924.2024
        51.7504         43.5004
  20025209.4334   -1878399.36549  -1454013.63548                  20025206.6904
        50.5004         44.7504
  21823542.7304   -3338092.70349  -2590080.28948                  21823542.0424
        48.7504         41.2504
  23045038.1054    -890984.74449   -683195.79347                  23045037.5894
        44.5004         32.0004
  22629642.8084    1778175.26949   1372464.37247                  22629641.8864
        48.0004         37.0004
 02  7 10 17  2 29.9990000  0  9G29G26G 6G15G17G18G21G 3G23
  23070080.2144     701210.46149    545034.48247                  23070079.4294
        48.0004         33.2504
  22101454.2694     319039.67249    243179.33647                  22101453.6164
        47.5004         36.5004
  21953832.3234    2071133.13249   1597997.83047                  21953831.9404
        47.2504         39.2504
  20014878.2454   -1448586.42749  -1121795.21748                  20014876.5734
        51.7504         44.2504
  20217570.1754    -879264.15349   -681762.10648                  20217568.5194
        51.2504         43.7504
  20020517.5264   -1903053.28249  -1473224.47148                  20020514.6124
        51.2504         44.0004
  21814666.1054   -3384740.63449  -2626429.29648                  21814665.1444
        49.2504         40.7504
  23033239.1054    -952989.13949   -731510.88047                  23033239.1594
        45.2504         31.5004
  22634176.5264    1802001.08249   1391029.90947                  22634175.6514
        48.5004         36.5004
 02  7 10 17  2 44.9990000  0  9G29G26G 6G15G17G18G21G 3G23
  23072322.8004     712995.58149    554217.66947                  23072321.9484
        46.2504         33.2504
  22102909.7614     326685.36049    249136.98547                  22102908.4954
        48.7504         37.0004
  21959404.9484    2100418.68149   1620817.68747                  21959404.5264
        48.0004         38.5004
  20011080.6984   -1468544.35749  -1137346.85548                  20011078.7924
        53.2504         44.5004
  20215217.8084    -891627.41249   -691395.82548                  20215216.8354
        51.2504         43.5004
  20015838.4484   -1927642.80649  -1492385.14648                  20015835.8744
        51.5004         44.5004
  21805794.0034   -3431363.49949  -2662758.78148                  21805793.1124
        48.7504         40.7504
  23021443.5344   -1014977.74049   -779813.67647                  23021442.6754
        45.0004         32.0004
  22638706.8084    1825807.85749   1409580.61147                  22638706.5774
        48.2504         37.2504
 02  7 10 17  2 59.9990000  0  9G29G26G 6G15G17G18G21G 3G23
  23074577.9174     724848.46549    563453.66447                  23074577.8044
        46.2504         32.5004
  22104383.7304     334432.47949    255173.69147                  22104383.0194
        47.7504         37.5004
  21964983.5734    2129734.24649   1643660.93147                  21964983.2844
        46.2504         38.0004
  20007287.0734   -1488479.95149  -1152881.08348                  20007285.2964
        52.0004         44.2504
  20212867.6284    -903975.81349   -701017.96148                  20212866.3154
        52.2504         44.0004
  20011171.9254   -1952167.17449  -1511495.03748                  20011168.7264
        51.5004         44.2504
  21796926.4954   -3477960.73849  -2699068.30148                  21796926.3154
        49.0004         41.2504
  23009650.3554   -1076949.64349   -828103.44547                  23009649.1674
        45.0004         32.7504
  22643234.1904    1849596.05649   1428116.85447                  22643233.1634
        48.5004         37.2504
 02  7 10 17  3 14.9990000  0  9G29G26G 6G15G17G18G21G 3G23
  23076845.6124     736766.25849    572740.24047                  23076845.9914
        46.2504         33.0004
  22105876.8554     342278.11949    261287.17047                  22105876.2494
        48.0004         36.7504
  21970567.1284    2159077.05549   1666525.41747                  21970566.6364
        47.0004         38.0004
  20003497.3554   -1508395.73849  -1168399.87848                  20003495.1714
        53.2504         44.7504
  20210520.6054    -916311.90749   -710630.50948                  20210518.6244
        51.2504         44.0004
  20006516.7224   -1976629.12149  -1530556.29648                  20006513.9874
        51.5004         44.2504
  21788063.6594   -3524534.86649  -2735359.80248                  21788063.1904
        48.7504         41.0004
  22997859.7374   -1138907.11049   -876381.96847                  22997859.6874
        44.2504         32.5004
  22647756.4804    1873362.89249   1446636.44647                  22647755.0114
        48.0004         37.0004
 02  7 10 17  3 29.9990000  0  9G29G26G 6G15G17G18G21G 3G23
  23079125.6514     748747.74749    582076.45547                  23079126.1404
        46.2504         34.0004
  22107388.5114     350221.21349    267476.58447                  22107388.3084
        47.7504         37.5004
  21976156.3624    2188445.93449   1689410.19547                  21976155.8124
        47.0004         38.0004
  19999710.8624   -1528292.58649  -1183903.92248                  19999708.9054
        50.5004         44.2504
  20208175.2454    -928636.60149   -720234.18148                  20208173.6594
        51.7504         43.5004
  20001873.4954   -2001029.68349  -1549569.72548                  20001870.6874
        51.5004         44.0004
  21779204.9724   -3571086.89949  -2771634.10348                  21779204.2304
        49.0004         40.7504
  22986072.1754   -1200850.67049   -924649.64547                  22986071.9764
        45.2504         31.7504
  22652275.1124    1897107.15849   1465138.44347                  22652274.3044
        47.5004         37.5004
 02  7 10 17  3 44.9990000  0  9G29G26G 6G15G17G18G21G 3G23
  23081418.2694     760795.30349    591464.13747                  23081418.4644
        46.2504         32.7504
  22108918.5584     358263.86149    273743.58047                  22108918.2964
        46.7504         37.5004
  21981750.5034    2217842.98049   1712316.95547                  21981749.6714
        48.0004         39.0004
  19995928.5814   -1548168.12349  -1199391.35348                  19995926.9334
        52.5004         44.5004
  20205832.3784    -940947.45649   -729827.05448                  20205830.5654
        52.0004         44.0004
  19997242.3784   -2025366.58649  -1568533.54748                  19997239.7064
        51.0004         44.2504
  21770351.5264   -3617614.24949  -2807889.15248                  21770351.0034
        48.7504         40.5004
  22974288.4724   -1262777.78349   -972904.53047                  22974287.1634
        44.5004         31.7504
  22656789.1204    1920830.99649   1483624.52847                  22656788.7574
        47.5004         37.2504
 02  7 10 17  3 59.9990000  0  9G29G26G 6G15G17G18G21G 3G23
  23083724.9724     772913.80649    600907.08747                  23083724.1124
        46.0004         33.0004
  22110468.8554     366411.27049    280092.18647                  22110468.5304
        45.2504         36.7504
  21987350.7064    2247273.24449   1735249.58347                  21987350.6474
        47.5004         38.5004
  19992151.4094   -1568016.91349  -1214857.94948                  19992149.4874
        52.0004         44.5004
  20203493.3154    -953239.08749   -739404.95848                  20203492.1554
        52.0004         43.7504
  19992623.9724   -2049634.62249  -1587443.70348                  19992621.2104
        51.2504         44.0004
  21761503.4014   -3664111.50249  -2844120.76148                  21761502.3624
        48.5004         41.0004
  22962507.9334   -1324682.86649  -1021142.22247                  22962507.1634
        44.5004         31.7504
  22661300.7374    1944539.50049   1502098.66047                  22661299.8974
        47.7504         37.2504
 02  7 10 17  4 14.9990000  0  9G29G26G 6G15G17G18G21G 3G23
  23086043.8704     785103.07049    610405.19647                  23086043.9174
        45.2504         32.2504
  22112039.0504     374663.07249    286522.13847                  22112039.0934
        45.5004         37.2504
  21992957.2924    2276736.49749   1758207.91747                  21992957.3704
        47.5004         38.5004
  19988379.6904   -1587838.94049  -1230303.67848                  19988377.7304
        52.2504         44.0004
  20201157.9254    -965511.34049   -748967.75848                  20201156.4294
        51.7504         44.0004
  19988019.4254   -2073833.80949  -1606300.20948                  19988016.1634
        50.5004         44.0004
  21752660.8944   -3710578.69849  -2880328.95048                  21752660.1754
        49.0004         40.7504
  22950732.3704   -1386565.49749  -1069362.44147                  22950730.7844
        44.5004         31.5004
  22665810.1444    1968232.49149   1520560.71447                  22665808.8154
        47.5004         37.0004
 02  7 10 17  4 29.9990000  0  9G29G26G 6G15G17G18G21G 3G23
  23088377.3004     797360.40249    619956.35847                  23088376.4764
        46.0004         33.2504
  22113629.0424     383016.56949    293031.35147                  22113628.6514
        48.2504         36.5004
  21998569.6674    2306229.88949   1781189.72847                  21998569.7374
        47.5004         38.2504
  19984611.8864   -1607636.79949  -1245730.58048                  19984610.1594
        52.0004         44.0004
  20198826.1364    -977766.92349   -758517.56148                  20198824.4834
        52.0004         43.5004
  19983427.0584   -2097966.69949  -1625105.06148                  19983423.4834
        51.5004         43.7504
  21743823.7764   -3757018.56749  -2916515.83348                  21743823.4254
        48.7504         40.7504
  22938960.0974   -1448427.93949  -1117566.92847                  22938959.5894
        45.0004         31.2504
  22670314.6904    1991907.17049   1539008.49647                  22670313.9874
        48.5004         36.0004
 02  7 10 17  4 44.9990000  0  9G29G26G 6G15G17G18G21G 3G23
  23090722.3314     809686.29549    629560.91847                  23090721.7414
        45.7504         33.0004
  22115238.0344     391472.25249    299620.18247                  22115237.9214
        48.7504         37.0004
  22004188.2224    2335754.01349   1804195.48647                  22004188.1714
        48.5004         38.5004
  19980849.5504   -1627409.49849  -1261137.89248                  19980847.6984
        51.5004         44.2504
  20196497.3394    -990004.79949   -768053.57848                  20196495.6084
        51.7504         43.5004
  19978847.5894   -2122032.56449  -1643857.69048                  19978844.7374
        51.0004         44.0004
  21734991.6444   -3803429.89849  -2952680.49348                  21734991.4564
        48.7504         41.5004
  22927192.8474   -1510269.05749  -1165754.80747                  22927191.2494
        45.0004         31.7504
  22674816.4094    2015564.13849   1557442.45547                  22674816.3904
        48.7504         37.0004
 02  7 10 17  4 59.9990000  0  9G29G26G 6G15G17G18G21G 3G23
  23093080.5504     822078.82549    639217.41047                  23093080.2884
        45.5004         34.0004
  22116866.2764     400028.17449    306287.11147                  22116865.4604
        48.7504         37.0004
  22009811.7924    2365306.94549   1827223.69447                  22009811.2184
        47.5004         38.2504
  19977091.3864   -1647158.69749  -1276526.87348                  19977089.5154
        53.0004         44.2504
  20194171.2614   -1002226.58349   -777577.05248                  20194169.7264
        51.7504         43.7504
  19974280.2924   -2146033.23149  -1662559.49948                  19974277.6324
        51.0004         43.7504
  21726164.7144   -3849814.61649  -2988824.40548                  21726164.2334
        49.5004         41.5004
  22915428.2694   -1572090.27249  -1213927.17447                  22915426.8974
        44.7504         31.7504
  22679314.9334    2039201.46549   1575861.14447                  22679314.3514
        48.5004         37.0004
 02  7 10 17  5 14.9990000  0  9G29G26G 6G15G17G18G21G 3G23
  23095452.0974     834545.11749    648931.38747                  23095452.2964
        44.5004         32.2504
  22118514.9874     408691.56249    313037.79647                  22118514.1204
        48.5004         36.7504
  22015442.4804    2394895.74949   1850279.86647                  22015441.8554
        47.2504         38.0004
  19973339.1834   -1666876.97749  -1291891.77248                  19973336.9954
        53.2504         44.5004
  20191849.8704   -1014425.04949   -787082.36448                  20191848.0224
        51.5004         43.7504
  19969726.9094   -2169961.47249  -1681204.88748                  19969723.6284
        51.0004         44.2504
  21717344.6834   -3896165.23549  -3024941.75548                  21717344.8154
        48.5004         41.0004
  22903668.6984   -1633883.88649  -1262078.03547                  22903667.7884
        44.7504         31.5004
  22683810.0974    2062826.40349   1594270.15047                  22683809.4334
        48.2504         37.0004
 02  7 10 17  5 29.9990000  0  9G29G26G 6G15G17G18G21G 3G23
  23097838.5974     847081.71249    658700.15247                  23097837.7224
        44.5004         32.2504
  22120183.3704     417458.93549    319869.50847                  22120182.9724
        48.2504         37.0004
  22021078.6904    2424516.97749   1873361.30747                  22021078.8084
        46.5004         38.5004
  19969592.0654   -1686567.59349  -1307235.10648                  19969590.0584
        52.0004         44.7504
  20189532.5894   -1026603.25349   -796571.87548                  20189530.6944
        51.0004         44.0004
  19965186.4334   -2193820.53849  -1699796.36748                  19965183.9014
        50.7504         44.2504
  21708530.2694   -3942484.98149  -3061035.03348                  21708529.5154
        48.0004         41.2504
  22891913.7224   -1695652.81649  -1310209.62247                  22891913.9764
        42.5004         29.2504
  22688302.8234    2086435.35749   1612666.72447                  22688302.8584
        48.7504         36.7504
 02  7 10 17  5 44.9990000  0  9G29G26G 6G15G17G18G21G 3G23
  23100236.9564     859684.50949    668520.48047                  23100235.8514
        45.0004         33.0004
  22121870.7454     426326.12749    326778.98047                  22121870.6284
        47.5004         37.2504
  22026721.0894    2454166.46049   1896464.73947                  22026721.2224
        47.5004         38.0004
  19965849.6364   -1706234.31249  -1322559.83748                  19965847.7334
        52.7504         44.7504
  20187218.5194   -1038764.99349   -806048.56648                  20187216.8154
        51.5004         44.0004
  19960658.8314   -2217614.34749  -1718336.99348                  19960655.7264
        51.5004         43.7504
  21699721.2764   -3988777.74249  -3097107.30348                  21699720.8744
        48.2504         41.0004
  22880163.7844   -1757400.55949  -1358324.74947                  22880163.4054
        40.7504         30.2504
  22692791.8864    2110024.27649   1631047.66347                  22692791.2224
        46.7504         36.5004
 02  7 10 17  5 59.9990000  0  9G29G26G 6G15G17G18G21G 3G23
  23102647.4644     872352.17049    678391.38747                  23102646.6084
        45.0004         32.5004
  22123576.5584     435291.97449    333765.34347                  22123576.5654
        47.0004         37.2504
  22032368.6444    2483843.00549   1919589.28047                  22032368.1674
        47.0004         37.7504
  19962111.7304   -1725878.10849  -1337866.67548                  19962109.3314
        53.2504         44.7504
  20184906.8784   -1050911.16649   -815513.12348                  20184905.2964
        51.7504         43.5004
  19956143.1054   -2241344.03549  -1736827.65548                  19956140.0544
        51.2504         44.0004
  21690916.8704   -4035044.53749  -3133159.32348                  21690916.2334
        48.5004         41.2504
  22868417.4404   -1819127.91649  -1406423.94047                  22868417.4174
        41.7504         30.5004
  22697276.4254    2133591.90649   1649412.03147                  22697275.4604
        47.5004         36.5004
 02  7 10 17  6 14.9990000  0  9G29G26G 6G15G17G18G21G 3G23
  23105070.9954     885089.09749    688316.26847                  23105070.5264
        44.5004         32.7504
  22125302.4874     444360.64049    340831.82247                  22125301.5654
        47.5004         37.0004
  22038021.7304    2513550.76349   1942738.13147                  22038021.2694
        46.5004         38.0004
  19958379.1054   -1745494.37349  -1353152.08048                  19958376.3514
        52.7504         44.5004
  20182599.5264   -1063037.36449   -824962.11948                  20182598.1284
        51.5004         43.0004
  19951640.6904   -2265005.28249  -1755264.99848                  19951637.2764
        51.7504         44.0004
  21682118.3154   -4081280.88449  -3169187.62848                  21682118.0894
        48.7504         41.2504
  22856676.2924   -1880830.07749  -1454503.51447                  22856676.2104
        43.0004         32.0004
  22701758.2844    2157142.51049   1667763.12647                  22701757.1204
        47.5004         37.0004
 02  7 10 17  6 29.9990000  0  9G29G26G 6G15G17G18G21G 3G23
  23107507.9644     897894.67049    698294.59147                  23107507.4564
        43.7504         33.5004
  22127047.3624     453531.74149    347978.12247                  22127047.6084
        46.2504         36.2504
  22043680.7924    2543289.29149   1965910.96547                  22043680.4054
        48.5004         38.2504
  19954651.5504   -1765083.22249  -1368416.12948                  19954649.4094
        53.5004         44.7504
  20180296.1594   -1075143.66049   -834395.60348                  20180294.0544
        51.5004         43.5004
  19947151.1594   -2288598.17249  -1773649.07148                  19947147.8824
        51.7504         43.5004
  21673325.2694   -4127486.97049  -3205192.36048                  21673325.1084
        48.5004         41.7504
  22844939.8004   -1942506.91149  -1502563.37847                  22844939.8044
        43.0004         31.5004
  22706236.7614    2180675.71349   1686100.66047                  22706235.7304
        47.5004         36.7504
 02  7 10 17  6 44.9990000  0  9G29G26G 6G15G17G18G21G 3G23
  23109957.5344     910767.37449    708325.24347                  23109957.4334
        44.5004         33.0004
  22128812.1054     462803.62649    355202.94247                  22128811.7144
        46.2504         36.5004
  22049345.6444    2573056.91449   1989106.46447                  22049345.4524
        47.5004         37.7504
  19950928.6054   -1784646.08649  -1383659.92648                  19950926.7574
        53.0004         44.5004
  20177995.6594   -1087231.41149   -843814.63848                  20177993.5384
        52.0004         43.0004
  19942674.2144   -2312124.33349  -1791981.14148                  19942671.0894
        51.2504         43.5004
  21664538.4564   -4173664.10149  -3241174.52348                  21664537.9014
        48.7504         41.2504
  22833206.9014   -2004159.50649  -1550604.36047                  22833207.0654
        42.0004         30.7504
  22710711.2144    2204189.87949   1704423.34947                  22710710.5854
        47.0004         37.0004
 02  7 10 17  6 59.9990000  0  9G29G26G 6G15G17G18G21G 3G23
  23112420.5654     923711.17349    718411.31747                  23112420.2924
        44.5004         32.7504
  22130596.6754     472180.23449    362509.37247                  22130595.6364
        47.0004         36.5004
  22055016.0114    2602857.65449   2012327.77447                  22055016.2724
        46.5004         37.2504
  19947211.9724   -1804178.66549  -1398880.12548                  19947209.2494
        52.2504         44.7504
  20175699.6364   -1099296.23649   -853215.81348                  20175698.1084
        51.5004         43.2504
  19938210.7224   -2335579.55149  -1810257.94348                  19938207.6674
        51.2504         44.0004
  21655757.4644   -4219807.96449  -3277130.75648                  21655756.9524
        48.7504         41.0004
  22821480.4804   -2065783.42049  -1598622.97447                  22821480.7694
        42.5004         30.7504
  22715183.0424    2227689.05249   1722734.37047                  22715182.4374
        48.5004         37.0004
 02  7 10 17  7 14.9990000  0  9G29G26G 6G15G17G18G21G 3G23
  23114895.9404     936717.88749    728546.38247                  23114895.8154
        45.0004         32.5004
  22132398.9874     481653.39949    369891.06047                  22132398.7334
        46.5004         36.2504
  22060692.1904    2632683.24949   2035568.44747                  22060691.7494
        46.2504         37.5004
  19943498.8394   -1823688.88349  -1414082.88848                  19943496.8744
        52.7504         45.0004
  20173406.5114   -1111346.21449   -862605.40548                  20173404.7454
        51.0004         43.0004
  19933759.2304   -2358971.84849  -1828485.70948                  19933756.4484
        51.7504         43.7504
  21646981.6904   -4265926.62749  -3313067.36248                  21646980.7184
        48.7504         41.2504
  22809757.7694   -2127386.28349  -1646625.18247                  22809757.5974
        43.0004         31.0004
  22719649.9954    2251165.02949   1741027.30947                  22719649.8124
        48.0004         36.7504
 02  7 10 17  7 29.9990000  0  9G29G26G 6G15G17G18G21G 3G23
  23117384.7694     949798.73949    738739.22847                  23117384.5304
        44.0004         32.5004
  22134221.9094     491234.44849    377356.81247                  22134221.8124
        46.5004         36.0004
  22066374.9094    2662545.00249   2058837.28947                  22066374.7414
        48.0004         37.2504
  19939793.0344   -1843165.14749  -1429259.20148                  19939790.7304
        53.0004         44.7504
  20171118.5264   -1123369.67349   -871974.34348                  20171116.7964
        51.5004         43.0004
  19929321.7454   -2382289.82149  -1846655.55948                  19929318.9804
        51.5004         43.5004
  21638212.2534   -4312008.42549  -3348975.23748                  21638211.5224
        49.5004         41.2504
  22798041.8314   -2188956.17849  -1694601.68947                  22798041.7924
        43.7504         32.0004
  22724115.0584    2274629.08549   1759310.96147                  22724115.0854
        48.0004         37.5004
 02  7 10 17  7 44.9990000  0  9G29G26G 6G15G17G18G21G 3G23
  23119887.0194     962946.41149    748984.13647                  23119887.1674
        43.2504         32.7504
  22136064.4874     500915.97349    384900.83147                  22136063.9014
        46.0004         36.2504
  22072062.3944    2692435.64349   2082128.66047                  22072062.9564
        48.0004         37.5004
  19936091.5894   -1862614.53249  -1444414.57648                  19936089.6404
        52.5004         44.5004
  20168834.5814   -1135373.63349   -881328.09348                  20168832.6754
        52.2504         43.2504
  19924897.6444   -2405540.63949  -1864773.07948                  19924894.7614
        51.0004         44.0004
  21629448.9724   -4358060.35149  -3384859.83048                  21629448.2224
        50.0004         41.5004
  22786330.5114   -2250499.86549  -1742557.80747                  22786329.8154
        44.5004         33.5004
  22728577.0114    2298073.97649   1777579.68147                  22728576.5974
        49.7504         37.2504
 02  7 10 17  7 59.9990000  0  9G29G26G 6G15G17G18G21G 3G23
  23122401.2144     976158.33149    759279.11947                  23122401.7334
        43.5004         33.5004
  22137925.0034     510695.40749    392521.16447                  22137924.7534
        47.5004         35.5004
  22077755.9954    2722352.51849   2105440.45847                  22077755.6874
        47.2504         38.5004
  19932395.3784   -1882039.30749  -1459550.77148                  19932393.4094
        52.5004         44.5004
  20166553.5114   -1147360.40949   -890668.44048                  20166551.2264
        51.5004         43.2504
  19920485.4094   -2428726.81149  -1882840.22248                  19920481.9684
        50.7504         43.5004
  21620690.7614   -4404084.80449  -3420723.02848                  21620690.0194
        48.2504         41.5004
  22774623.6124   -2312019.51549  -1790495.15747                  22774623.4484
        44.0004         33.2504
  22733033.8154    2321497.07349   1795831.42447                  22733033.4094
        48.5004         37.0004
 02  7 10 17  8 14.9990000  0  9G29G26G 6G15G17G18G21G 3G23
  23124927.4174     989433.97449    769623.74747                  23124927.0264
        43.0004         32.5004
  22139805.1364     520572.32849    400217.44147                  22139804.5344
        47.5004         36.0004
  22083453.7764    2752295.11649   2128772.30347                  22083453.4804
        47.0004         38.0004
  19928703.2924   -1901439.59749  -1474667.87548                  19928701.5344
        52.5004         44.2504
  20164275.6514   -1159330.13849   -899995.51748                  20164273.8434
        51.5004         43.2504
  19916085.8154   -2451848.53549  -1900857.15648                  19916082.3944
        51.0004         43.5004
  21611938.0734   -4450082.05149  -3456565.02248                  21611937.0814
        48.7504         41.5004
  22762921.1754   -2373514.88949  -1838413.61347                  22762920.9484
        44.5004         33.7504
  22737486.9484    2344897.98649   1814065.86647                  22737486.7964
        48.7504         37.0004
 02  7 10 17  8 29.9990000  0  9G29G26G 6G15G17G18G21G 3G23
  23127466.0974    1002774.67649    780019.07747                  23127465.6124
        44.2504         32.5004
  22141703.6674     530547.86949    407990.57747                  22141702.9444
        46.0004         36.0004
  22089157.1364    2782264.59249   2152125.09647                  22089156.9684
        47.0004         38.0004
  19925016.6514   -1920813.91749  -1489764.75948                  19925014.5154
        52.2504         44.5004
  20162001.3084   -1171281.39349   -909308.19748                  20161999.6204
        50.7504         43.5004
  19911697.9954   -2474904.54149  -1918822.87348                  19911694.9954
        51.0004         43.2504
  21603190.2224   -4496050.77349  -3492384.79448                  21603190.1554
        48.2504         42.2504
  22751223.6124   -2434984.32249  -1886311.86147                  22751224.1834
        44.0004         34.0004
  22741936.2374    2368277.82749   1832283.89847                  22741935.1514
        49.5004         37.2504
 02  7 10 17  8 44.9990000  0  9G29G26G 6G15G17G18G21G 3G23
  23130017.7304    1016183.15449    790467.21847                  23130016.8154
        42.0004         32.5004
  22143621.4094     540624.88049    415842.77847                  22143620.9404
        46.7504         36.2504
  22094865.8944    2812263.89049   2175501.13247                  22094865.7844
        48.0004         38.0004
  19921335.0584   -1940159.04349  -1504838.88348                  19921333.3974
        52.0004         44.2504
  20159731.1834   -1183210.84049   -918603.87548                  20159729.8124
        51.5004         43.2504
  19907323.5654   -2497891.70149  -1936734.93648                  19907320.7844
        50.2504         43.7504
  21594448.6514   -4541987.71149  -3528179.78848                  21594448.1874
        48.2504         41.7504
  22739532.2224   -2496424.21349  -1934187.07947                  22739532.7614
        44.0004         34.0004
  22746381.6054    2391639.62149   1850487.87547                  22746381.0504
        49.0004         36.2504
 02  7 10 17  8 59.9990000  0  9G29G26G 6G15G17G18G21G 3G23
  23132581.5264    1029658.19749    800967.21547                  23132581.8314
        44.0004         33.2504
  22145557.6124     550802.16249    423773.11147                  22145557.1944
        46.7504         36.7504
  22100579.8154    2842291.63449   2198899.31247                  22100579.7104
        47.0004         37.5004
  19917659.6284   -1959475.96449  -1519891.03548                  19917657.7064
        52.0004         44.5004
  20157465.1124   -1195119.50749   -927883.36148                  20157464.1364
        51.5004         42.7504
  19902962.3864   -2520811.24449  -1954594.33048                  19902959.5974
        51.0004         43.7504
  21585712.8864   -4587893.84949  -3563950.78248                  21585712.6164
        48.7504         41.7504
  22727847.0814   -2557835.46249  -1982039.97047                  22727846.2724
        44.5004         34.0004
  22750823.6674    2414982.03749   1868676.74247                  22750822.9874
        49.0004         36.5004
 02  7 10 17  9 14.9990000  0  9G29G26G 6G15G17G18G21G 3G23
  23135159.2454    1043202.85449    811521.46447                  23135159.0584
        45.0004         33.0004
  22147513.7694     561082.69949    431783.91347                  22147513.3044
        44.5004         36.5004
  22106299.3784    2872350.82249   2222322.01247                  22106299.7764
        46.5004         37.0004
  19913989.5974   -1978761.34449  -1534918.61348                  19913987.8354
        51.7504         44.5004
  20155203.4804   -1207004.12449   -937144.11848                  20155201.7764
        51.5004         42.7504
  19898614.0264   -2543659.79049  -1972398.38548                  19898611.6554
        50.5004         43.5004
  21576983.9644   -4633765.83149  -3599695.16848                  21576983.2144
        48.2504         42.2504
  22716166.4174   -2619214.49349  -2029867.74547                  22716166.2964
        42.5004         32.5004
  22755262.4254    2438308.29549   1886853.03547                  22755261.1944
        48.5004         36.5004
 02  7 10 17  9 29.9990000  0  9G29G26G 6G15G17G18G21G 3G23
  23137749.3944    1056815.42749    822128.64647                  23137749.5624
        44.5004         32.2504
  22149489.3704     571464.81949    439873.85947                  22149489.7374
        47.0004         37.0004
  22112025.3394    2902439.80449   2245767.92247                  22112025.6904
        46.2504         37.2504
  19910325.3004   -1998016.57149  -1549922.68348                  19910323.5854
        52.0004         44.7504
  20152946.4334   -1218865.95549   -946387.10448                  20152944.6324
        52.0004         43.0004
  19894279.5504   -2566438.92049  -1990148.35948                  19894276.4254
        51.5004         43.5004
  21568260.7694   -4679604.98649  -3635413.97348                  21568260.3434
        49.0004         42.0004
  22704492.5264   -2680562.33749  -2077671.24547                  22704491.8434
        45.0004         32.5004
  22759697.8554    2461616.68749   1905015.38847                  22759696.5154
        48.5004         36.2504
 02  7 10 17  9 44.9990000  0  9G29G26G 6G15G17G18G21G 3G23
  23140352.8864    1070496.51649    832789.21247                  23140352.9054
        44.7504         31.7504
  22151484.8154     581949.20149    448043.47547                  22151484.4484
        48.0004         37.0004
  22117757.3474    2932559.21949   2269237.56247                  22117757.8624
        46.0004         38.0004
  19906667.2454   -2017240.65749  -1564902.50448                  19906665.1204
        52.0004         44.0004
  20150693.9954   -1230704.18249   -955611.70548                  20150691.8474
        51.7504         43.5004
  19889958.3554   -2589147.95549  -2007843.70648                  19889955.3704
        50.2504         43.5004
  21559544.3314   -4725410.48649  -3671106.55248                  21559543.9444
        49.0004         41.5004
  22692824.0814   -2741877.82349  -2125449.54547                  22692824.1204
        44.5004         33.5004
  22764130.2614    2484907.90549   1923164.36647                  22764129.5734
        47.5004         36.7504
 02  7 10 17  9 59.9990000  0  9G29G26G 6G15G17G18G21G 3G23
  23142969.3864    1084244.04749    843501.57047                  23142969.2764
        45.2504         32.0004
  22153498.9174     592533.62749    456291.06547                  22153498.4094
        46.0004         36.5004
  22123494.0894    2962706.95649   2292729.26647                  22123495.5464
        46.5004         37.7504
  19903014.5194   -2036435.48149  -1579859.50748                  19903012.4374
        51.5004         44.0004
  20148445.1204   -1242520.31949   -964819.09448                  20148443.3194
        51.5004         43.2504
  19885649.9804   -2611788.76449  -2025485.89048                  19885647.0694
        50.5004         43.7504
  21550833.8084   -4771184.14149  -3706774.30548                  21550833.1284
        49.2504         41.7504
  22681162.1054   -2803162.55949  -2173203.87047                  22681161.7064
        46.0004         34.0004
  22768558.9174    2508179.93249   1941298.38247                  22768557.4014
        47.0004         36.2504
 02  7 10 17 10 14.9990000  0  9G29G26G 6G15G17G18G21G 3G23
  23145598.2374    1098059.18149    854266.59847                  23145597.6244
        45.0004         31.5004
  22155532.7454     603219.34249    464617.59347                  22155531.9914
        46.5004         36.2504
  22129236.5114    2992884.14649   2316243.91347                  22129237.3084
        47.5004         38.0004
  19899367.6754   -2055599.61549  -1594792.61448                  19899365.7764
        51.0004         44.2504
  20146200.7534   -1254313.24449   -974008.39848                  20146199.4994
        51.5004         43.5004
  19881354.6204   -2634360.09449  -2043073.94548                  19881351.5344
        50.5004         43.5004
  21542129.9174   -4816924.50249  -3742416.13148                  21542129.1324
        49.0004         42.2504
  22669505.9644   -2864414.91449  -2220932.96147                  22669505.7024
        43.0004         34.0004
  22772983.6284    2531433.86349   1959418.29847                  22772983.2454
        47.5004         36.7504
 02  7 10 17 10 29.9990000  0  9G29G26G 6G15G17G18G21G 3G23
  23148239.6834    1111941.05549    865083.60147                  23148239.2844
        44.7504         32.2504
  22157585.1834     614005.38449    473022.28047                  22157584.9914
        47.2504         36.7504
  22134984.2064    3023089.96449   2339780.85247                  22134985.2304
        46.0004         37.0004
  19895726.5654   -2074733.55349  -1609702.18648                  19895724.9954
        51.2504         44.2504
  20143961.1514   -1266083.33849   -983179.90348                  20143959.4804
        51.7504         43.5004
  19877072.5504   -2656862.53249  -2060608.31348                  19877069.7694
        50.2504         43.7504
  21533432.1594   -4862632.29849  -3778032.58148                  21533431.2454
        48.5004         41.7504
  22657856.3944   -2925635.12749  -2268636.98547                  22657856.1794
        44.0004         33.7504
  22777405.1364    2554668.94649   1977523.54247                  22777405.9764
        46.5004         36.5004
 02  7 10 17 10 44.9990000  0  9G29G26G 6G15G17G18G21G 3G23
  23150894.6124    1125890.94849    875953.64047                  23150894.0544
        45.5004         33.0004
  22159656.7374     624893.09549    481506.19547                  22159656.7104
        47.0004         36.5004
  22140737.9014    3053325.69449   2363341.10747                  22140738.4684
        47.0004         37.5004
  19892091.4014   -2093835.63649  -1624586.93348                  19892089.2304
        51.2504         44.2504
  20141726.2064   -1277829.08849   -992332.44648                  20141724.4834
        51.5004         43.5004
  19872804.0894   -2679294.71849  -2078087.92948                  19872800.6204
        50.5004         43.5004
  21524740.4874   -4908305.97649  -3813622.43048                  21524739.7964
        48.0004         41.7504
  22646212.6054   -2986821.26549  -2316314.47047                  22646212.2024
        43.7504         33.0004
  22781823.2764    2577886.48649   1995615.10447                  22781823.1874
        46.7504         36.5004
 02  7 10 17 10 59.9990000  0  9G29G26G 6G15G17G18G21G 3G23
  23153561.0814    1139902.49349    886871.71347                  23153560.8044
        44.5004         33.0004
  22161746.6444     635876.04449    490064.32047                  22161746.1714
        46.5004         36.5004
  22146496.8474    3083584.90149   2386919.65947                  22146496.8704
        46.0004         36.0004
  19888461.4254   -2112912.07149  -1639451.69348                  19888459.4914
        51.0004         44.5004
  20139494.7144   -1289556.46949  -1001470.67148                  20139492.9564
        51.2504         43.2504
  19868547.1444   -2701662.89149  -2095517.67548                  19868544.4644
        50.0004         43.5004
  21516054.1834   -4953951.84049  -3849190.61748                  21516053.5694
        49.0004         42.0004
  22634574.6834   -3047979.18749  -2363969.96747                  22634574.0464
        42.2504         32.5004
  22786236.9724    2601080.11849   2013688.03247                  22786236.7184
        46.7504         36.2504
 02  7 10 17 11 14.9990000  0  9G29G26G 6G15G17G18G21G 3G23
  23156240.3624    1153983.23649    897843.68147                  23156240.3394
        45.2504         32.0004
  22163856.6514     646961.72549    498702.49647                  22163855.6794
        46.5004         36.0004
  22152260.0344    3113875.08849   2410522.36547                  22152260.6944
        47.0004         36.5004
  19884837.5654   -2131954.87449  -1654290.24748                  19884836.0894
        50.5004         44.5004
  20137267.7064   -1301257.66249  -1010588.49248                  20137266.1554
        52.0004         43.0004
  19864304.3554   -2723959.30749  -2112891.50948                  19864301.3664
        47.7504         43.5004
  21507374.8004   -4999561.88649  -3884730.90348                  21507374.1794
        49.2504         42.5004
  22622943.6754   -3109100.74449  -2411597.13047                  22622942.8474
        43.5004         32.5004
  22790647.5264    2624257.43049   2031748.26247                  22790647.5224
        44.2504         36.0004
 02  7 10 17 11 29.9990000  0  9G29G26G 6G15G17G18G21G 3G23
  23158932.8624    1168132.80149    908869.28147                  23158932.8704
        44.5004         31.5004
  22165985.4094     658149.84349    507420.48847                  22165984.2724
        46.7504         35.7504
  22158030.2844    3144195.94549   2434148.95747                  22158030.5894
        46.0004         36.5004
  19881220.5034   -2150964.10649  -1669102.64448                  19881218.9404
        52.5004         44.7504
  20135046.0424   -1312932.72449  -1019685.95848                  20135044.8784
        51.7504         43.7504
  19860075.0894   -2746184.17949  -2130209.59148                  19860072.2694
        50.0004         43.2504
  21498702.1514   -5045136.03449  -3920243.20448                  21498701.7694
        49.5004         42.0004
  22611319.7614   -3170185.73549  -2459195.78647                  22611318.5694
        45.0004         31.7504
  22795055.2144    2647418.16349   2049795.55347                  22795054.4214
        46.2504         35.5004
 02  7 10 17 11 44.9990000  0  9G29G26G 6G15G17G18G21G 3G23
  23161637.7224    1182350.38549    919947.92547                  23161638.6364
        43.5004         31.7504
  22168133.8004     669439.67749    516217.75947                  22168133.5654
        46.7504         36.2504
  22163805.8624    3174546.73549   2457798.87147                  22163805.8274
        46.0004         36.5004
  19877609.5264   -2169940.27849  -1683889.27948                  19877607.5774
        52.0004         44.7504
  20132829.3784   -1324582.02849  -1028763.33648                  20132827.4564
        51.2504         43.0004
  19855859.7924   -2768338.02049  -2147472.32848                  19855856.7454
        49.5004         43.5004
  21490036.6284   -5090674.91849  -3955728.03248                  21490036.1874
        48.5004         41.5004
  22599702.9564   -3231234.38349  -2506766.16547                  22599701.3704
        44.5004         32.7504
  22799459.1594    2670561.58749   2067829.37347                  22799458.8004
        46.2504         35.7504
 02  7 10 17 11 59.9990000  0  9G29G26G 6G15G17G18G21G 3G23
  23164356.9954    1196637.26549    931080.53947                  23164357.0504
        43.2504         31.7504
  22170302.3554     680832.35149    525095.13747                  22170301.8394
        46.2504         36.7504
  22169587.4804    3204928.57549   2481472.99647                  22169587.3944
        46.2504         36.2504
  19874005.2304   -2188881.81249  -1698648.91748                  19874003.3624
        52.2504         44.5004
  20130617.6514   -1336204.02649  -1037819.45548                  20130616.0464
        51.5004         43.0004
  19851657.5264   -2790419.58949  -2164678.73648                  19851654.6164
        49.0004         43.5004
  21481377.9724   -5136177.08849  -3991184.24948                  21481377.0224
        48.7504         41.2504
  22588093.3394   -3292244.90849  -2554306.81747                  22588092.0584
        45.2504         32.5004
  22803859.8004    2693688.94149   2085850.66947                  22803859.8974
        45.0004         35.5004
 02  7 10 17 12 14.9990000  0  9G29G26G 6G15G17G18G21G 3G23
  23167087.8944    1210990.97349    942265.24847                  23167087.6404
        44.0004         31.2504
  22172489.1754     692325.39349    534050.75247                  22172488.4404
        45.5004         36.0004
  22175374.4484    3235339.03549   2505169.40147                  22175374.3784
        46.0004         36.2504
  19870407.0424   -2207790.96649  -1713383.33148                  19870404.7494
        52.5004         44.5004
  20128411.1124   -1347801.08849  -1046856.14448                  20128409.3704
        51.5004         43.5004
  19847468.8554   -2812431.14049  -2181830.60048                  19847465.7374
        49.5004         43.2504
  21472725.6124   -5181644.85449  -4026613.66048                  21472725.0854
        49.0004         41.2504
  22576489.7844   -3353219.24249  -2601819.26647                  22576488.4644
        45.0004         32.5004
  22808257.3474    2716797.76249   2103857.50947                  22808257.6834
        45.7504         35.2504
 02  7 10 17 12 29.9990000  0  9G29G26G 6G15G17G18G21G 3G23
  23169831.5114    1225408.79949    953499.88347                  23169831.9644
        44.5004         30.0004
  22174694.1124     703916.03449    543082.40747                  22174693.7654
        46.5004         36.2504
  22181166.1444    3265775.41449   2528886.01247                  22181166.0814
        45.5004         36.0004
  19866814.1834   -2226670.05049  -1728094.30748                  19866812.3154
        53.0004         44.5004
  20126208.3084   -1359375.43649  -1055875.11948                  20126206.4834
        51.7504         43.7504
  19843292.8004   -2834375.21849  -2198929.87748                  19843290.1364
        49.2504         43.2504
  21464079.1904   -5227080.43549  -4062017.99148                  21464078.6054
        48.0004         41.5004
  22564892.8474   -3414159.44249  -2649305.10447                  22564892.3004
        41.5004         33.0004
  22812650.9014    2739885.48749   2121847.92747                  22812650.7104
        45.0004         35.7504
 02  7 10 17 12 44.9980000  0  9G29G26G 6G15G17G18G21G 3G23
  23172588.4594    1239894.23849    964787.19647                  23172588.7324
        43.5004         31.7504
  22176919.6314     715608.13849    552193.11247                  22176918.9474
        47.7504         36.2504
  22186964.4044    3296240.26549   2552624.80347                  22186963.5614
        45.0004         36.0004
  19863228.4514   -2245512.86349  -1742777.02948                  19863226.2954
        52.5004         44.5004
  20124011.2724   -1370921.35349  -1064871.94948                  20124009.9244
        52.0004         43.0004
  19839131.4364   -2856245.57649  -2215971.71648                  19839128.3184
        49.2504         43.5004
  21455440.9364   -5272475.88149  -4097391.03948                  21455439.6474
        48.7504         41.5004
  22553304.6074   -3475056.37349  -2696757.26047                  22553303.7794
        43.5004         33.5004
  22817041.0144    2762955.18549   2139824.26847                  22817040.6354
        44.5004         35.2504
 02  7 10 17 12 59.9980000  0  9G29G26G 6G15G17G18G21G 3G23
  23175358.0144    1254446.66249    976126.73147                  23175358.5884
        44.0004         31.5004
  22179163.5374     727400.46249    561381.93047                  22179163.0294
        46.2504         36.0004
  22192766.2794    3326734.84049   2576386.76247                  22192766.2014
        45.5004         36.0004
  19859649.1234   -2264324.39949  -1757435.37548                  19859647.1824
        52.2504         44.5004
  20121819.0374   -1382442.99949  -1073849.86448                  20121817.4004
        51.0004         43.5004
  19834982.5224   -2878047.76049  -2232960.42948                  19834979.4754
        48.5004         43.2504
  21446808.7484   -5317839.70849  -4132739.47148                  21446807.9124
        49.0004         41.7504
  22541722.7564   -3535920.36649  -2744183.71647                  22541721.6544
        43.0004         32.5004
  22821427.7724    2786007.20649   2157786.85647                  22821427.5144
        44.7504         35.2504
 02  7 10 17 13 14.9980000  0  9G29G26G 6G15G17G18G21G 3G23
  23178140.5454    1269068.46349    987520.31447                  23178141.0454
        43.7504         32.2504
  22181426.9434     739295.84549    570651.03747                  22181426.5224
        46.5004         36.5004
  22198575.2954    3357260.77549   2600173.16247                  22198575.5254
        44.5004         36.0004
  19856076.0614   -2283099.38649  -1772065.23748                  19856073.6704
        52.0004         45.0004
  20119631.9434   -1393935.48749  -1082805.05748                  20119630.6474
        51.0004         43.0004
  19830847.6934   -2899776.71449  -2249892.07948                  19830844.6504
        49.7504         43.0004
  21438183.7014   -5363165.12449  -4168057.95048                  21438182.3224
        49.7504         42.0004
  22530148.3814   -3596742.99549  -2791577.93347                  22530148.1234
        44.5004         33.0004
  22825811.3654    2809043.73449   2175737.37947                  22825810.8224
        45.7504         34.7504
 02  7 10 17 13 29.9980000  0  9G29G26G 6G15G17G18G21G 3G23
  23180934.9514    1283752.38949    998962.30447                  23180935.0294
        42.7504         32.0004
  22183708.8114     751286.86449    579994.69747                  22183708.7834
        44.7504         36.0004
  22204388.5294    3387810.61249   2623978.17247                  22204388.6974
        44.5004         36.0004
  19852509.2254   -2301845.02349  -1786672.22848                  19852507.1744
        53.2504         45.0004
  20117449.2094   -1405405.95149  -1091743.09748                  20117447.6314
        51.5004         43.0004
  19826725.1074   -2921439.52449  -2266772.19348                  19826722.0574
        49.7504         43.2504
  21429564.0844   -5408459.48449  -4203352.24648                  21429562.9824
        50.2504         42.0004
  22518580.2954   -3657531.27549  -2838945.40247                  22518580.2874
        45.0004         33.2504
  22830190.7404    2832057.35449   2193670.04247                  22830190.2214
        46.5004         35.2504
 02  7 10 17 13 44.9980000  0  9G29G26G 6G15G17G18G21G 3G23
  23183741.7174    1298505.21849   1010457.99147                  23183741.5844
        43.2504         30.5004
  22186009.9674     763380.17049    589418.03147                  22186009.5884
        46.2504         36.2504
  22210208.2254    3418391.12649   2647807.08947                  22210208.0804
        45.0004         34.7504
  19848948.7724   -2320554.19749  -1801250.82148                  19848946.9244
        53.2504         44.5004
  20115271.7724   -1416847.37549  -1100658.49748                  20115270.4514
        51.2504         43.0004
  19822616.9124   -2943029.31749  -2283595.41048                  19822613.5454
        50.7504         43.5004
  21420952.3184   -5453715.51149  -4238616.66448                  21420951.3814
        49.7504         41.7504
  22507020.6154   -3718277.86549  -2886280.39247                  22507020.8114
        44.0004         34.0004
  22834566.9124    2855054.93749   2211590.20947                  22834567.1004
        47.5004         35.0004
 02  7 10 17 13 59.9980000  0  9G29G26G 6G15G17G18G21G 3G23
  23186561.2794    1313320.30049   1022002.19247                  23186561.3774
        43.5004         31.0004
  22188329.8114     775569.28649    598916.01647                  22188329.3184
        46.0004         36.7504
  22216031.8734    3448995.57649   2671654.67147                  22216031.6074
        44.5004         35.2504
  19845394.1474   -2339233.28449  -1815805.95348                  19845392.2684
        52.0004         44.7504
  20113098.8734   -1428265.91049  -1109556.06448                  20113097.7914
        51.2504         43.7504
  19818520.8504   -2964552.48249  -2300366.70348                  19818517.8424
        49.5004         43.5004
  21412346.2484   -5498939.63949  -4273856.22748                  21412345.8694
        49.5004         41.5004
  22495468.8184   -3778988.86949  -2933587.65747                  22495467.5104
        45.7504         33.7504
  22838938.6784    2878029.82549   2229492.70147                  22838938.6624
        45.0004         35.5004
 02  7 10 17 14 14.9980000  0  9G29G26G 6G15G17G18G21G 3G23
  23189392.3734    1328201.83349   1033598.17347                  23189393.0064
        42.2504         31.0004
  22190667.9674     787858.23649    608491.81147                  22190667.7724
        46.0004         36.5004
  22221861.3114    3479628.18849   2695524.16947                  22221861.7134
        43.5004         35.7504
  19841846.4514   -2357877.73449  -1830334.10448                  19841844.4044
        52.0004         44.7504
  20110931.4824   -1439657.20849  -1118432.41748                  20110929.4984
        51.5004         43.5004
  19814438.6314   -2986004.75049  -2317082.76548                  19814436.3034
        50.2504         43.0004
  21403747.5534   -5544127.36149  -4309067.42248                  21403746.9434
        49.0004         41.7504
  22483923.3184   -3839659.49349  -2980863.48047                  22483921.9044
        46.0004         33.2504
  22843307.2794    2900986.34449   2247380.87347                  22843307.4004
        46.5004         36.0004
 02  7 10 17 14 29.9980000  0  9G29G26G 6G15G17G18G21G 3G23
  23192237.4904    1343147.21049   1045243.88347                  23192236.8544
        42.0004         30.2504
  22193025.4594     800244.60149    618143.50747                  22193024.9044
        47.2504         35.7504
  22227695.5144    3510286.44449   2719413.67347                  22227695.7484
        44.7504         35.5004
  19838304.5684   -2376489.76549  -1844836.98948                  19838302.4754
        53.0004         44.5004
  20108768.6074   -1451023.46649  -1127289.24648                  20108766.7294
        51.2504         43.2504
  19810369.7174   -3007388.41449  -2333745.35048                  19810366.8614
        51.0004         43.0004
  21395155.1394   -5589281.10049  -4344252.12948                  21395154.1744
        49.0004         41.7504
  22472385.0294   -3900291.81949  -3028109.43347                  22472384.2094
        45.0004         34.0004
  22847672.0844    2923921.99249   2265252.78347                  22847671.8694
        47.0004         36.2504
 02  7 10 17 14 44.9980000  0  9G29G26G 6G15G17G18G21G 3G23
  23195093.4674    1358158.94949   1056941.34247                  23195093.8344
        42.2504         29.7504
  22195401.0294     812730.71749    627872.94047                  22195400.4794
        46.0004         35.5004
  22233535.0924    3540972.84049   2743325.10347                  22233535.6474
        45.0004         36.0004
  19834769.3114   -2395066.49349  -1859312.35848                  19834767.4944
        52.0004         44.7504
  20106610.7484   -1462361.77649  -1136124.29748                  20106609.5064
        51.0004         43.5004
  19806314.0684   -3028700.89849  -2350352.49048                  19806311.1004
        50.5004         43.5004
  21386569.4434   -5634397.99449  -4379408.13848                  21386568.5254
        48.5004         41.5004
  22460855.1624   -3960882.72549  -3075323.10747                  22460854.8854
        44.0004         34.2504
  22852033.2954    2946839.28049   2283110.39347                  22852033.4044
        47.0004         35.5004
 02  7 10 17 14 59.9980000  0  9G29G26G 6G15G17G18G21G 3G23
  23197962.7954    1373234.90649   1068688.79747                  23197961.9124
        41.5004         29.5004
  22197795.6704     825314.36949    637678.35647                  22197795.1894
        46.2504         36.0004
  22239379.0454    3571685.16349   2767256.72047                  22239379.0964
        44.7504         35.5004
  19831240.7094   -2413609.82149  -1873761.72148                  19831239.0804
        53.0004         44.7504
  20104458.1864   -1473674.13049  -1144939.13348                  20104456.4864
        51.5004         43.5004
  19802271.5614   -3049944.25149  -2366905.75148                  19802268.3654
        51.0004         43.5004
  21377990.8574   -5679480.11849  -4414537.05448                  21377989.9714
        49.5004         41.5004
  22449332.5614   -4021433.72749  -3122505.70547                  22449332.0254
        43.7504         33.7504
  22856390.8184    2969736.09149   2300952.01447                  22856390.2484
        47.0004         36.0004
 02  7 10 17 15 14.9980000  0  9G29G26G 6G15G17G18G21G 3G23
  23200843.4514    1388373.83849   1080485.32047                  23200842.9554
        41.5004         30.0004
  22200208.5144     837994.51449    647558.98247                  22200208.4084
        46.2504         35.5004
  22245228.5224    3602422.31649   2791207.70547                  22245228.5144
        44.0004         35.5004
  19827718.2794   -2432120.69749  -1888185.78348                  19827716.4674
        53.0004         44.7504
  20102310.4754   -1484961.28649  -1153734.32148                  20102308.9084
        51.5004         43.5004
  19798241.9124   -3071119.45049  -2383405.90548                  19798238.9864
        50.5004         43.5004
  21369418.1474   -5724528.09149  -4449639.34648                  21369417.5064
        48.5004         41.5004
  22437817.2404   -4081945.41849  -3169657.65047                  22437816.4714
        45.7504         34.5004
  22860743.4364    2992611.32649   2318776.85947                  22860743.0684
        47.7504         36.0004
 02  7 10 17 15 29.9980000  0  9G29G26G 6G15G17G18G21G 3G23
  23203737.3734    1403583.28549   1092336.83647                  23203737.3774
        43.0004         30.0004
  22202641.9824     850778.53049    657520.52447                  22202641.1154
        47.5004         35.2504
  22251083.6394    3633191.71749   2815183.80547                  22251083.6394
        44.7504         35.5004
  19824203.5764   -2450591.24049  -1902578.41448                  19824201.5064
        52.7504         44.5004
  20100168.8504   -1496215.44749  -1162503.81348                  20100167.6784
        51.7504         43.7504
  19794227.0534   -3092218.82049  -2399846.97248                  19794224.1544
        51.0004         43.5004
  21360853.9674   -5769534.27749  -4484709.08648                  21360852.7054
        49.7504         41.7504
  22426310.8974   -4142409.75949  -3216772.71847                  22426311.2994
        43.5004         33.7504
  22865093.6624    3015472.54449   2336590.76647                  22865093.9514
        47.5004         35.5004
 02  7 10 17 15 44.9980000  0  9G29G26G 6G15G17G18G21G 3G23
  23206644.3894    1418859.61149   1104240.42947                  23206643.9824
        42.7504         30.0004
  22205092.9674     863662.80849    667560.22147                  22205092.8114
        47.2504         35.7504
  22256944.7724    3663989.73549   2839182.20447                  22256944.8734
        45.0004         35.0004
  19820695.5374   -2469024.75149  -1916942.18948                  19820693.8814
        52.5004         44.5004
  20098032.7644   -1507439.97749  -1171250.20148                  20098031.2834
        51.2504         43.2504
  19790225.8974   -3113245.83549  -2416231.65148                  19790222.5724
        51.0004         43.5004
  21352296.8114   -5814502.19349  -4519749.00048                  21352295.7294
        49.0004         41.7504
  22414813.4364   -4202829.94249  -3263853.35147                  22414813.6074
        42.5004         33.7504
  22869440.2564    3038316.18449   2354390.97747                  22869440.5374
        47.7504         35.5004
 02  7 10 17 15 59.9980000  0  9G29G26G 6G15G17G18G21G 3G23
  23209563.0764    1434197.19549   1116191.79647                  23209563.0104
        43.5004         31.5004
  22207563.2794     876641.75949    677673.67647                  22207562.8734
        46.7504         35.5004
  22262809.6864    3694810.86149   2863198.61347                  22262809.9984
        45.7504         35.5004
  19817193.6934   -2487426.47949  -1931281.21548                  19817191.9124
        52.7504         44.5004
  20095901.5144   -1518639.97349  -1179977.49048                  20095899.7364
        51.0004         43.0004
  19786237.2324   -3134205.89949  -2432564.16948                  19786234.1274
        50.7504         43.5004
  21343746.0844   -5859436.87249  -4554763.01948                  21343745.3424
        50.0004         41.5004
  22403324.2724   -4263210.81649  -3310903.37547                  22403323.1004
        45.5004         33.7504
  22873783.6784    3061136.77949   2372173.21947                  22873782.9794
        48.2504         36.0004
 02  7 10 17 16 14.9980000  0  9G29G26G 6G15G17G18G21G 3G23
  23212494.9124    1449600.97249   1128194.70147                  23212494.3224
        43.7504         30.5004
  22210052.2014     889720.28949    687864.73747                  22210051.4434
        48.0004         36.0004
  22268679.9514    3725659.93249   2887236.80247                  22268680.2604
        44.7504         35.5004
  19813699.2094   -2505791.17149  -1945591.35648                  19813697.4164
        53.2504         44.5004
  20093775.6314   -1529810.17749  -1188681.55048                  20093774.1044
        51.7504         43.5004
  19782262.4594   -3155094.04349  -2448840.65348                  19782259.3894
        51.5004         43.2504
  21335202.4594   -5904333.21249  -4589747.16848                  21335201.6824
        49.5004         41.5004
  22391842.2254   -4323546.91849  -3357918.50447                  22391841.9674
        45.2504         34.0004
  22878122.3894    3083939.30549   2389941.39747                  22878121.6974
        48.0004         35.2504
 02  7 10 17 16 29.9980000  0  9G29G26G 6G15G17G18G21G 3G23
  23215437.3974    1465063.07049   1140243.07847                  23215436.7094
        43.0004         30.5004
  22212558.1624     902890.39849    698127.13547                  22212557.7444
        48.5004         36.7504
  22274554.0224    3756528.98049   2911290.53947                  22274554.8344
        44.0004         35.5004
  19810210.1394   -2524126.45649  -1959878.60748                  19810208.4124
        53.0004         44.5004
  20091654.6784   -1540958.30649  -1197368.41848                  20091652.8614
        51.0004         43.2504
  19778299.5764   -3175917.95849  -2465067.08948                  19778296.4204
        51.0004         43.0004
  21326664.9984   -5949198.82449  -4624707.36548                  21326663.8074
        49.0004         41.7504
  22380367.4364   -4383845.59349  -3404904.46547                  22380366.5644
        43.7504         33.5004
  22882457.3344    3106715.82049   2407689.28547                  22882456.4474
        48.2504         35.2504
 02  7 10 17 16 44.9980000  0  9G29G26G 6G15G17G18G21G 3G23
  23218390.8114    1480583.02349   1152336.50147                  23218390.2174
        44.0004         30.7504
  22215081.2954     916151.65549    708460.56747                  22215081.4904
        48.0004         35.7504
  22280431.9044    3787417.59349   2935359.54247                  22280432.6114
        43.5004         35.2504
  19806726.3654   -2542432.40349  -1974142.99548                  19806724.5884
        53.0004         44.5004
  20089537.3264   -1552084.39649  -1206038.10648                  20089535.9004
        52.0004         43.7504
  19774348.8974   -3196677.95349  -2481243.70948                  19774345.7724
        50.2504         43.0004
  21318132.8654   -5994033.78849  -4659643.67548                  21318131.9514
        48.2504         41.7504
  22368901.0064   -4444106.58349  -3451861.08247                  22368899.3734
        44.7504         33.0004
  22886785.9204    3129466.04649   2425416.72147                  22886786.5184
        48.5004         36.0004
 02  7 10 17 16 59.9980000  0  9G29G26G 6G15G17G18G21G 3G23
  23221356.3504    1496166.72949   1164479.61647                  23221355.1704
        44.0004         30.2504
  22217623.3264     929509.95549    718869.61147                  22217623.4284
        48.0004         36.0004
  22286315.2794    3818331.65949   2959448.38047                  22286315.7254
        44.0004         35.5004
  19803249.4754   -2560702.83449  -1988379.70248                  19803247.9204
        52.2504         44.5004
  20087425.5224   -1563182.35549  -1214685.87948                  20087423.7404
        51.7504         43.7504
  19770412.1314   -3217367.94849  -2497365.78448                  19770408.7834
        50.7504         43.2504
  21309607.9674   -6038832.06749  -4694551.41448                  21309606.9754
        49.5004         42.0004
  22357442.0294   -4504323.66449  -3498783.45647                  22357440.9394
        46.0004         34.5004
  22891111.5684    3152195.92049   2443128.27947                  22891111.7484
        48.0004         35.0004
 02  7 10 17 17 14.9980000  0  9G29G26G 6G15G17G18G21G 3G23
  23224333.9284    1511813.38949   1176671.81247                  23224332.2174
        44.7504         30.5004
  22220184.2644     942964.47749    729353.64547                  22220183.9324
        48.0004         36.7504
  22292202.1864    3849270.36949   2983556.40547                  22292203.3264
        44.7504         35.2504
  19799779.8424   -2578938.17549  -2002589.06148                  19799778.0884
        52.5004         44.5004
  20085318.8114   -1574252.44549  -1223311.92148                  20085317.1114
        51.0004         43.5004
  19766487.7724   -3237988.59549  -2513433.81348                  19766484.7914
        50.0004         43.5004
  21301090.1704   -6083594.20649  -4729430.98448                  21301089.2444
        49.0004         41.7504
  22345991.0534   -4564496.92249  -3545671.68947                  22345989.7724
        45.7504         34.5004
  22895433.3504    3174904.74949   2460823.45047                  22895433.0144
        49.0004         34.5004
 02  7 10 17 17 29.9980000  0  9G29G26G 6G15G17G18G21G 3G23
  23227323.5684    1527528.04549   1188916.95347                  23227322.9324
        43.7504         30.0004
  22222763.6314     956520.27049    739916.58447                  22222763.7994
        48.2504         36.5004
  22298095.7794    3880238.93249   3007687.69947                  22298096.6314
        45.5004         35.5004
  19796317.5844   -2597132.91549  -2016766.78948                  19796315.6744
        53.2504         44.5004
  20083218.8114   -1585289.34149  -1231912.12348                  20083216.9714
        52.2504         43.7504
  19762578.3184   -3258534.54149  -2529443.65548                  19762575.3574
        51.2504         43.2504
  21292580.3974   -6128314.83549  -4764278.21348                  21292579.3074
        48.0004         42.0004
  22334550.0064   -4624620.62949  -3592521.31147                  22334548.7754
        45.5004         35.5004
  22899750.7564    3197597.75649   2478506.29647                  22899751.6974
        48.5004         34.5004
 02  7 10 17 17 44.9980000  0  9G29G26G 6G15G17G18G21G 3G23
  23230325.8424    1543305.07549   1201210.73247                  23230325.5144
        42.0004         29.0004
  22225361.2404     970171.56349    750553.92947                  22225361.8034
        48.0004         36.5004
  22303993.6154    3911231.42249   3031837.64447                  22303993.7524
        45.0004         35.0004
  19792861.7014   -2615292.57049  -2030917.17748                  19792859.9474
        51.7504         44.7504
  20081123.5764   -1596298.55849  -1240490.73248                  20081122.4474
        51.0004         43.7504
  19758681.8504   -3279011.53449  -2545399.74448                  19758678.8464
        49.5004         43.5004
  21284076.8654   -6172999.45749  -4799097.38548                  21284075.5724
        49.0004         42.0004
  22323117.2484   -4684700.12049  -3639336.46747                  22323116.2134
        46.0004         35.0004
  22904065.2014    3220269.17549   2496172.29247                  22904065.7404
        46.7504         33.7504
 02  7 10 17 17 59.9980000  0  9G29G26G 6G15G17G18G21G 3G23
  23233340.5844    1559143.60349   1213552.40347                  23233339.9004
        44.5004         30.5004
  22227977.6004     983917.62749    761265.13247                  22227977.6154
        48.2504         37.0004
  22309895.4284    3942247.23749   3056005.76747                  22309895.9634
        43.7504         34.5004
  19789412.9674   -2633417.51649  -2045040.52548                  19789411.1154
        53.7504         44.5004
  20079034.1704   -1607280.33949  -1249047.98848                  20079032.6394
        52.0004         43.5004
  19754797.9204   -3299420.05549  -2561302.50048                  19754795.2954
        50.0004         43.2504
  21275580.9754   -6217648.72149  -4833889.00548                  21275579.8424
        50.7504         42.0004
  22311692.7564   -4744735.45349  -3686117.23247                  22311691.0684
        46.2504         34.0004
  22908375.1474    3242918.40649   2513821.01647                  22908375.8114
        47.5004         34.2504
 02  7 10 17 18 14.9980000  0  9G29G26G 6G15G17G18G21G 3G23
  23236365.9904    1575042.26049   1225940.94847                  23236364.8114
        43.7504         30.7504
  22230610.6314     997756.92049    772048.98247                  22230610.7174
        47.7504         36.0004
  22315801.5294    3973284.84449   3080190.86147                  22315802.6074
        44.7504         34.7504
  19785970.0534   -2651508.88549  -2059137.70248                  19785968.3654
        52.5004         45.0004
  20076949.2794   -1618235.87149  -1257584.76648                  20076947.6974
        51.2504         44.0004
  19750927.0924   -3319761.37249  -2577152.88048                  19750923.9714
        51.0004         43.7504
  21267090.4364   -6262263.88349  -4868654.04848                  21267089.6784
        49.0004         41.7504
  22300276.8894   -4804727.50949  -3732864.28047                  22300275.9434
        46.2504         34.7504
  22912680.5924    3265544.02849   2531451.35847                  22912680.9284
        47.7504         34.0004
 02  7 10 17 18 29.9980000  0  9G29G26G 6G15G17G18G21G 3G23
  23239402.7404    1591001.40649   1238376.59847                  23239402.2874
        43.7504         31.0004
  22233261.6394    1011689.85449    782905.79347                  22233261.9984
        47.7504         35.0004
  22321712.2644    4004344.73449   3104393.30947                  22321713.1934
        45.0004         36.0004
  19782533.9904   -2669565.96749  -2073208.16748                  19782532.2294
        52.0004         44.5004
  20074869.2174   -1629164.44149  -1266100.55348                  20074867.3574
        51.7504         44.5004
  19747069.2724   -3340035.01849  -2592950.52848                  19747066.1474
        51.2504         43.0004
  21258607.0844   -6306843.72449  -4903391.57248                  21258606.2324
        49.7504         42.5004
  22288868.7954   -4864675.28549  -3779576.81147                  22288867.6824
        45.5004         34.5004
  22916982.1154    3288146.57149   2549063.67547                  22916981.8304
        47.7504         34.0004
 02  7 10 17 18 44.9980000  0  9G29G26G 6G15G17G18G21G 3G23
  23242451.3344    1607021.63949   1250859.86047                  23242450.4364
        43.0004         30.5004
  22235931.4364    1025717.08249    793836.07747                  22235931.8464
        47.2504         35.0004
  22327627.2254    4035427.46049   3128613.56547                  22327627.5844
        44.5004         35.0004
  19779104.5064   -2687587.80449  -2087251.15848                  19779102.5414
        51.7504         44.0004
  20072794.8344   -1640064.97749  -1274594.47848                  20072793.9324
        52.0004         44.0004
  19743224.1784   -3360240.13449  -2608694.77548                  19743221.1434
        51.0004         43.0004
  21250130.6394   -6351387.65049  -4938101.11048                  21250130.1234
        48.5004         42.0004
  22277470.0144   -4924577.57449  -3826253.88947                  22277468.8144
        44.2504         34.2504
  22921279.0924    3310726.70449   2566658.58347                  22921278.9164
        47.0004         33.5004
 02  7 10 17 18 59.9980000  0  9G29G26G 6G15G17G18G21G 3G23
  23245511.7174    1623104.98049   1263392.30947                  23245511.7484
        43.7504         30.5004
  22238619.3504    1039840.48349    804841.30747                  22238619.1354
        47.0004         35.7504
  22333546.6934    4066535.05249   3152853.21147                  22333547.0844
        44.0004         34.2504
  19775682.3654   -2705572.10549  -2101264.91248                  19775680.3304
        52.5004         44.2504
  20070726.5684   -1650935.24549  -1283064.82948                  20070724.8814
        52.0004         44.5004
  19739392.9364   -3380374.60249  -2624383.96948                  19739389.8114
        50.5004         43.0004
  21241661.8974   -6395893.34149  -4972780.85248                  21241660.7254
        49.2504         42.0004
  22266079.7014   -4984431.87049  -3872893.59147                  22266079.1894
        45.5004         35.0004
  22925571.7174    3333286.53249   2584237.62247                  22925570.9904
        48.0004         34.0004
 02  7 10 17 19 14.9980000  0  9G29G26G 6G15G17G18G21G 3G23
  23248583.4754    1639249.90949   1275972.73347                  23248583.3344
        43.0004         30.2504
  22241324.5064    1054058.47149    815920.23747                  22241324.9984
        47.0004         36.0004
  22339470.7724    4097665.85549   3177110.92847                  22339470.9244
        43.0004         33.7504
  19772266.9754   -2723520.10149  -2115250.37048                  19772264.9754
        52.0004         44.2504
  20068663.5534   -1661776.46849  -1291512.55348                  20068662.1504
        51.7504         43.5004
  19735574.2014   -3400439.89549  -2640019.27448                  19735571.3934
        49.5004         43.2504
  21233199.4514   -6440362.17549  -5007431.88348                  21233198.7914
        49.5004         42.0004
  22254698.3264   -5044239.20749  -3919496.70547                  22254698.1274
        44.7504         35.5004
  22929860.5924    3355824.49949   2601799.64747                  22929860.4084
        47.5004         34.2504
 02  7 10 17 19 29.9980000  0  9G29G26G 6G15G17G18G21G 3G23
  23251668.3974    1655456.46449   1288601.17547                  23251667.6044
        43.7504         30.5004
  22244047.7794    1068371.30449    827073.07547                  22244047.9864
        45.5004         36.0004
  22345399.5764    4128820.07949   3201386.88947                  22345399.6584
        44.2504         34.0004
  19768858.6154   -2741431.16449  -2129207.04548                  19768856.2724
        52.7504         44.5004
  20066606.4904   -1672588.11749  -1299937.22048                  20066604.6474
        51.7504         44.0004
  19731769.5374   -3420435.56449  -2655600.31348                  19731766.5024
        51.0004         43.2504
  21224744.2794   -6484793.66149  -5042053.79648                  21224743.5494
        49.7504         42.0004
  22243326.6704   -5103998.64449  -3966062.47647                  22243326.2644
        44.7504         34.5004
  22934145.5374    3378340.94449   2619344.90947                  22934145.6354
        47.7504         34.0004
 02  7 10 17 19 44.9980000  0  9G29G26G 6G15G17G18G21G 3G23
  23254763.4984    1671724.17349   1301277.27847                  23254762.2724
        41.7504         29.0004
  22246790.4044    1082778.23749    838299.22747                  22246789.2564
        47.0004         35.5004
  22351332.8894    4159997.11149   3225680.62247                  22351333.1194
        43.7504         34.5004
  19765457.1004   -2759305.69549  -2143135.25848                  19765455.1314
        53.0004         44.7504
  20064554.4284   -1683370.44149  -1308339.05648                  20064553.0764
        50.0004         43.5004
  19727977.8344   -3440362.19149  -2671127.56548                  19727974.2874
        51.2504         43.2504
  21216296.1314   -6529188.03849  -5076646.80448                  21216295.1194
        48.7504         42.2504
  22231964.8424   -5163710.34949  -4012591.08847                  22231963.5534
        46.0004         35.5004
  22938426.0684    3400835.29749   2636872.92647                  22938425.6504
        48.0004         35.0004
 02  7 10 17 19 59.9980000  0  9G29G26G 6G15G17G18G21G 3G23
  23257871.6624    1688053.51449   1314001.41947                  23257870.2484
        43.2504         28.7504
  22249549.5454    1097279.84149    849599.17847                  22249549.4244
        47.0004         36.0004
  22357269.8424    4191197.49149   3249992.55247                  22357270.2094
        43.7504         34.0004
  19762062.9984   -2777142.78849  -2157034.30748                  19762061.0534
        52.5004         44.7504
  20062508.7014   -1694122.58949  -1316717.36348                  20062506.6354
        50.7504         44.0004
  19724198.9434   -3460219.00449  -2686600.40148                  19724196.4864
        49.5004         43.2504
  21207855.7484   -6573544.71649  -5111210.42748                  21207854.7134
        49.2504         42.5004
  22220610.5844   -5223373.22349  -4059081.63147                  22220610.8184
        44.5004         35.0004
  22942702.9364    3423308.17649   2654384.23847                  22942702.2484
        48.2504         34.5004
 02  7 10 17 20 14.9980000  0  9G29G26G 6G15G17G18G21G 3G23
  23260989.5924    1704443.99949   1326773.19847                  23260990.1824
        43.5004         29.5004
  22252327.3734    1111875.58349    860972.47347                  22252326.7834
        46.2504         35.7504
  22363211.6864    4222420.80449   3274322.34947                  22363211.3974
        44.5004         34.2504
  19758676.0064   -2794942.57349  -2170904.27048                  19758673.9864
        53.0004         44.5004
  20060468.2404   -1704844.68249  -1325072.24048                  20060466.1194
        51.0004         43.7504
  19720433.6314   -3480006.26049  -2702019.04048                  19720430.5964
        50.7504         43.2504
  21199422.1004   -6617863.73149  -5145744.71248                  21199420.7524
        49.5004         42.0004
  22209266.8264   -5282986.98749  -4105533.89747                  22209266.2134
        44.7504         34.7504
  22946974.9284    3445759.22949   2671878.53347                  22946974.4124
        48.0004         33.7504
 02  7 10 17 20 29.9980000  0  9G29G26G 6G15G17G18G21G 3G23
  23264121.0844    1720897.98849   1339594.45747                  23264121.0064
        44.0004         30.2504
  22255122.2014    1126567.82249    872420.93747                  22255122.3734
        44.5004         35.0004
  22369157.7564    4253669.32749   3298671.78247                  22369157.8184
        43.5004         35.0004
  19755296.3574   -2812702.36949  -2184743.08048                  19755294.3734
        52.7504         44.7504
  20058433.8974   -1715534.08349  -1333401.66248                  20058432.2524
        51.5004         44.0004
  19716682.1864   -3499721.57249  -2717381.62448                  19716678.7404
        50.7504         43.0004
  21190996.0224   -6662142.19049  -5180247.39348                  21190995.1114
        49.2504         42.0004
  22197932.8114   -5342548.79049  -4151945.68747                  22197931.2754
        45.2504         35.7504
  22951243.5294    3468190.79949   2689357.63347                  22951243.3424
        48.0004         34.0004
 02  7 10 17 20 44.9980000  0  9G29G26G 6G15G17G18G21G 3G23
  23267263.1234    1737411.12449   1352461.82747                  23267263.3464
        42.7504         30.2504
  22257936.4674    1141352.13949    883941.17547                  22257935.9474
        45.5004         35.5004
  22375107.6544    4284938.87249   3323037.60947                  22375108.4594
        43.5004         33.7504
  19751923.2954   -2830426.17149  -2198553.84148                  19751921.2484
        53.0004         44.7504
  20056405.0614   -1726194.71749  -1341708.65048                  20056403.3544
        51.7504         44.2504
  19712942.6394   -3519368.96049  -2732691.27448                  19712939.9554
        50.7504         43.0004
  21182577.0534   -6706384.64249  -5214722.00548                  21182575.9714
        48.7504         42.7504
  22186607.9284   -5402062.33749  -4198319.87747                  22186606.7294
        44.5004         35.5004
  22955507.3264    3490598.74949   2706818.35247                  22955507.2484
        48.2504         34.0004
 02  7 10 17 20 59.9980000  0  9G29G26G 6G15G17G18G21G 3G23
  23270416.4984    1753982.33449   1365374.40247                  23270416.6864
        41.5004         29.2504
  22260766.8814    1156227.34649    895532.21647                  22260766.6154
        45.2504         34.7504
  22381062.6004    4316228.12349   3347418.79147                  22381062.8034
        43.0004         34.0004
  19748557.3974   -2848114.78249  -2212337.18448                  19748555.7794
        53.0004         44.5004
  20054382.0454   -1736827.39649  -1349993.86248                  20054380.5334
        52.2504         44.2504
  19709216.7724   -3538949.65949  -2747948.96948                  19709213.9124
        51.2504         43.0004
  21174164.7324   -6750591.81849  -5249169.14048                  21174163.7994
        48.5004         42.5004
  22175291.2874   -5461528.33149  -4244656.98547                  22175290.5104
        44.0004         35.7504
  22959766.9824    3512981.91449   2724259.75147                  22959766.9904
        48.0004         34.0004
 02  7 10 17 21 14.9980000  0  9G29G26G 6G15G17G18G21G 3G23
  23273581.2564    1770611.87549   1378332.46847                  23273581.3504
        42.2504         29.2504
  22263614.8114    1171193.77549    907194.35847                  22263614.9754
        45.2504         34.7504
  22387020.6544    4347537.48049   3371815.61147                  22387020.6114
        45.2504         34.0004
  19745198.1314   -2865767.62849  -2226092.65348                  19745196.4794
        53.2504         44.7504
  20052364.0684   -1747431.54549  -1358256.85448                  20052362.3144
        52.0004         43.5004
  19705503.8114   -3558463.01549  -2763154.19148                  19705500.6194
        50.5004         43.0004
  21165758.9984   -6794762.96949  -5283588.21048                  21165758.1784
        49.0004         42.5004
  22163984.9674   -5520945.90049  -4290956.38047                  22163983.2874
        44.5004         34.7504
  22964021.6234    3535340.79349   2741682.20747                  22964022.0534
        48.2504         33.5004
 02  7 10 17 21 29.9980000  0  9G29G26G 6G15G17G18G21G 3G23
  23276757.2324    1787299.45249   1391335.75347                  23276757.1974
        43.7504         31.5004
  22266479.9364    1186251.19649    918927.40047                  22266479.8384
        44.2504         34.5004
  22392981.4904    4378866.74549   3396227.98547                  22392982.2644
        43.5004         33.7504
  19741845.6474   -2883384.50449  -2239820.10348                  19741843.9944
        52.7504         45.0004
  20050352.0144   -1758006.90049  -1366497.39648                  20050350.3814
        51.7504         43.7504
  19701803.0294   -3577909.09049  -2778306.97748                  19701800.1784
        51.0004         43.0004
  21157360.1234   -6838898.17949  -5317979.26448                  21157359.4124
        48.2504         42.0004
  22152687.5454   -5580314.61749  -4337217.69647                  22152686.2174
        45.0004         35.5004
  22968272.1934    3557675.23249   2759085.63747                  22968272.2874
        47.5004         33.0004
 02  7 10 17 21 44.9980000  0  9G29G26G 6G15G17G18G21G 3G23
  23279944.6864    1804049.97949   1404388.06747                  23279944.2834
        43.0004         31.0004
  22269363.5764    1201404.24149    930734.93747                  22269363.8694
        43.2504         35.2504
  22398948.6314    4410220.50249   3420659.43147                  22398949.2054
        43.0004         34.0004
  19738501.1474   -2900960.39149  -2253515.60948                  19738499.2014
        53.0004         45.0004
  20048345.9674   -1768548.55249  -1374711.68848                  20048344.2444
        51.5004         43.7504
  19698116.3734   -3597283.11849  -2793403.62148                  19698113.8504
        51.0004         43.7504
  21148969.4674   -6882992.54249  -5352338.49548                  21148968.3814
        48.5004         42.5004
  22141401.0454   -5639629.14849  -4383436.80847                  22141399.2954
        45.2504         35.5004
  22972518.3034    3579990.04049   2776473.77947                  22972518.9514
        48.5004         34.7504
 02  7 10 17 21 59.9980000  0  9G29G26G 6G15G17G18G21G 3G23
  23283144.4434    1820864.09949   1417489.95047                  23283143.7954
        43.0004         29.7504
  22272265.6314    1216653.74549    942617.64047                  22272265.1544
        44.5004         35.2504
  22404919.9434    4441599.58249   3445110.59547                  22404920.0804
        42.7504         34.7504
  19735164.4904   -2918494.15149  -2267178.27948                  19735162.7214
        52.2504         44.5004
  20046346.3574   -1779055.28149  -1382898.77148                  20046344.7644
        51.2504         43.7504
  19694443.5534   -3616584.08549  -2808443.32948                  19694440.8854
        51.0004         43.5004
  21140586.6864   -6927045.01849  -5386665.08348                  21140585.7644
        49.5004         42.0004
  22130124.1234   -5698888.10349  -4429612.59447                  22130122.2324
        46.5004         35.5004
  22976761.2254    3602286.09249   2793847.29147                  22976761.3774
        47.5004         34.5004
 02  7 10 17 22 14.9980000  0  9G29G26G 6G15G17G18G21G 3G23
  23286355.2954    1837736.30149   1430637.09047                  23286354.2014
        44.0004         30.2504
  22275184.5764    1231994.13849    954571.17047                  22275184.4044
        43.2504         34.5004
  22410894.6154    4472998.51749   3469577.25347                  22410894.9674
        42.7504         34.0004
  19731834.9364   -2935990.90149  -2280812.11548                  19731833.4394
        53.2504         44.5004
  20044352.8264   -1789532.27249  -1391062.65948                  20044350.9324
        52.5004         44.0004
  19690783.5614   -3635817.34649  -2823430.28348                  19690781.0534
        51.5004         43.0004
  21132210.6784   -6971060.71549  -5420962.99748                  21132209.6354
        49.7504         42.5004
  22118856.2794   -5758096.49049  -4475748.99347                  22118855.5254
        45.0004         35.5004
  22980998.9284    3624557.99349   2811201.98847                  22980999.6504
        47.5004         33.2504
 02  7 10 17 22 29.9980000  0  9G29G26G 6G15G17G18G21G 3G23
  23289577.2954    1854668.64549   1443831.11247                  23289577.0724
        42.7504         31.0004
  22278121.8264    1247427.29349    966596.96647                  22278121.6114
        43.7504         34.7504
  22416873.7484    4504419.29149   3494060.89547                  22416874.5964
        41.7504         33.5004
  19728512.8734   -2953448.26949  -2294415.27448                  19728511.1704
        53.0004         45.0004
  20042365.2014   -1799977.14549  -1399201.53548                  20042363.5454
        51.0004         44.0004
  19687136.8114   -3654980.76249  -2838362.83548                  19687134.3694
        51.2504         43.2504
  21123842.0614   -7015037.29249  -5455230.45548                  21123841.0614
        48.0004         42.2504
  22107599.7324   -5817251.72949  -4521843.95447                  22107598.7684
        45.5004         35.7504
  22985233.3654    3646807.81849   2828539.47347                  22985233.7524
        47.5004         32.7504
 02  7 10 17 22 44.9980000  0  9G29G26G 6G15G17G18G21G 3G23
  23292810.2094    1871663.50849   1457073.81047                  23292811.6274
        42.0004         29.5004
  22281076.3344    1262955.68149    978696.98647                  22281076.2324
        43.5004         34.0004
  22422857.5924    4535864.27549   3518563.42647                  22422858.4634
        41.2504         33.2504
  19725199.1624   -2970863.55749  -2307985.62648                  19725197.2724
        52.7504         44.7504
  20040383.9284   -1810387.20349  -1407313.27948                  20040382.6434
        51.5004         44.0004
  19683504.1234   -3674071.76949  -2853238.94148                  19683500.9634
        50.7504         43.2504
  21115481.5614   -7058972.22849  -5489465.45348                  21115480.4084
        49.2504         42.7504
  22096354.0924   -5876350.73049  -4567895.11447                  22096352.3814
        46.2504         36.0004
  22989463.0844    3669038.05749   2845861.71347                  22989463.6474
        46.7504         32.5004
 02  7 10 17 22 59.9980000  0  9G29G26G 6G15G17G18G21G 3G23
  23296056.2644    1888716.17249   1470361.56147                  23296056.7404
        42.0004         31.2504
  22284048.2794    1278574.49849    990867.47447                  22284048.8384
        43.2504         34.7504
  22428845.6784    4567328.82349   3543081.19547                  22428846.0964
        42.0004         33.0004
  19721892.1544   -2988241.18549  -2321526.64248                  19721890.1824
        54.0004         44.7504
  20038409.1864   -1820766.75749  -1415401.25148                  20038407.9714
        51.7504         44.0004
  19679884.1704   -3693094.91349  -2868062.16948                  19679881.2404
        51.0004         43.2504
  21107128.4434   -7102869.87949  -5523671.40048                  21107127.3814
        50.0004         42.7504
  22085117.7404   -5935397.65149  -4613905.68847                  22085116.4474
        47.0004         36.0004
  22993689.4434    3691244.14449   2863165.13947                  22993689.4084
        47.5004         32.5004
 02  7 10 17 23 14.9980000  0  9G29G26G 6G15G17G18G21G 3G23
  23299312.4204    1905826.79049   1483694.50047                  23299312.1044
        43.7504         31.7504
  22287038.0294    1294284.05749   1003108.66047                  22287037.9904
        43.5004         34.7504
  22434836.7484    4598813.21149   3567614.43447                  22434836.8224
        42.0004         33.2504
  19718592.6704   -3005580.49949  -2335037.80348                  19718591.1044
        53.0004         44.7504
  20036439.7404   -1831115.28649  -1423465.06348                  20036438.0614
        52.5004         44.0004
  19676277.0454   -3712049.71549  -2882832.14848                  19676273.6154
        51.0004         43.5004
  21098781.9984   -7146729.60549  -5557847.78348                  21098780.9984
        48.7504         42.5004
  22073891.1474   -5994391.66749  -4659875.03647                  22073890.0614
        46.2504         36.5004
  22997910.6934    3713426.43249   2880449.99547                  22997910.6584
        46.5004         33.0004
 02  7 10 17 23 29.9980000  0  9G29G26G 6G15G17G18G21G 3G23
  23302580.1234    1923000.07149   1497076.24347                  23302580.6314
        42.2504         31.5004
  22290045.5224    1310088.84049   1015424.04847                  22290045.7054
        45.5004         35.5004
  22440832.6784    4630321.89049   3592166.59447                  22440832.8574
        42.7504         33.7504
  19715301.0294   -3022876.58649  -2348515.27648                  19715299.4004
        53.5004         44.7504
  20034477.4434   -1841427.93149  -1431500.88848                  20034475.9984
        51.7504         43.5004
  19672684.1864   -3730931.46249  -2897545.20248                  19672681.0534
        51.0004         43.5004
  21090443.5144   -7190546.81849  -5591991.04648                  21090442.9754
        49.7504         42.5004
  22062675.4904   -6053327.67549  -4705799.18347                  22062674.9044
        46.0004         35.2504
  23002128.3184    3735589.46149   2897719.86347                  23002127.7684
        47.2504         33.2504
 02  7 10 17 23 44.9980000  0  9G29G26G 6G15G17G18G21G 3G23
  23305859.3114    1940227.89349   1510500.47147                  23305858.7324
        43.0004         31.5004
  22293069.9044    1325980.73249   1027807.30347                  22293070.1624
        45.0004         35.2504
  22446831.3734    4661846.87249   3616731.44447                  22446831.9714
        43.2504         32.7504
  19712016.6004   -3040137.18349  -2361965.10448                  19712015.2874
        52.0004         44.7504
  20032520.3114   -1851712.26749  -1439514.67648                  20032518.7364
        51.7504         43.5004
  19669103.4124   -3749748.18549  -2912207.58848                  19669100.5104
        50.5004         43.5004
  21082111.8894   -7234329.30349  -5626107.25848                  21082111.3934
        49.5004         42.5004
  22051470.0764   -6112213.06849  -4751683.90247                  22051469.1584
        46.5004         35.0004
  23006340.5144    3757725.46149   2914968.66347                  23006340.4824
        48.0004         33.7504
 02  7 10 17 23 59.9980000  0  9G29G26G 6G15G17G18G21G 3G23
  23309147.5144    1957510.29649   1523967.24347                  23309148.4044
        43.7504         31.5004
  22296110.9904    1341959.74149   1040258.45747                  22296110.8034
        44.7504         35.0004
  22452834.2324    4693388.27549   3641309.10247                  22452834.2214
        42.7504         33.0004
  19708738.8344   -3057361.93349  -2375386.99948                  19708737.1934
        53.0004         44.5004
  20030568.8734   -1861967.87849  -1447506.07348                  20030567.7914
        51.5004         44.0004
  19665535.1154   -3768499.56149  -2926819.06148                  19665532.6234
        50.5004         43.5004
  21073787.4204   -7278076.63349  -5660196.07248                  21073786.6044
        49.7504         42.2504
  22040274.2254   -6171047.27049  -4797528.72547                  22040273.2684
        47.2504         35.5004
  23010547.7564    3779834.49649   2932196.44247                  23010547.6934
        47.2504         34.0004
 02  7 10 17 24 14.9980000  0  9G29G26G 6G15G17G18G21G 3G23
  23312448.7324    1974856.10549   1537483.42847                  23312448.5294
        43.7504         32.5004
  22299169.6784    1358034.80849   1052784.45347                  22299169.3464
        45.7504         34.5004
  22458840.6864    4724954.87049   3665906.39647                  22458840.8934
        42.2504         32.5004
  19705469.7324   -3074541.58049  -2388773.73948                  19705468.1504
        52.7504         44.7504
  20028624.6544   -1872185.65349  -1455467.98548                  20028622.9514
        52.0004         44.0004
  19661980.7014   -3787176.69149  -2941372.67148                  19661978.3894
        51.2504         43.5004
  21065470.6314   -7321779.52849  -5694250.26248                  21065470.4714
        50.0004         42.5004
  22029090.3654   -6229820.91449  -4843326.35647                  22029088.6894
        47.0004         35.2504
  23014751.8034    3801925.52149   2949410.20047                  23014751.1934
        47.0004         33.2504
 02  7 10 17 24 29.9980000  0  9G29G26G 6G15G17G18G21G 3G23
  23315758.5614    1992253.62949   1551039.91347                  23315758.7994
        44.5004         30.7504
  22302244.5764    1374194.01549   1065376.01847                  22302243.5804
        44.5004         34.5004
  22464850.5374    4756534.92149   3690514.18747                  22464850.4514
        43.0004         32.2504
  19702207.1624   -3091687.52149  -2402134.22148                  19702205.0024
        52.0004         44.7504
  20026685.0684   -1882376.98049  -1463409.28548                  20026683.2684
        51.5004         44.0004
  19658438.7324   -3805791.11749  -2955877.41948                  19658436.0684
        50.7504         43.5004
  21057160.7954   -7365449.60949  -5728278.87248                  21057160.0064
        50.7504         43.0004
  22017915.4984   -6288545.12149  -4889085.45747                  22017914.7754
        47.0004         36.2504
  23018949.4364    3823986.88549   2966600.83747                  23018949.0574
        47.2504         32.7504
 02  7 10 17 24 44.9980000  0  9G29G26G 6G15G17G18G21G 3G23
  23319080.2954    2009707.90849   1564640.61247                  23319081.0494
        44.0004         30.7504
  22305337.2484    1390442.41749   1078037.08647                  22305336.4364
        46.5004         34.2504
  22470863.1704    4788133.53749   3715136.42547                  22470863.4164
        42.0004         31.7504
  19698951.5614   -3108794.36349  -2415464.22848                  19698950.0574
        52.2504         44.5004
  20024752.0764   -1892536.34649  -1471325.68448                  20024750.2524
        52.0004         44.2504
  19654909.3114   -3824337.65149  -2970329.26448                  19654906.2484
        51.0004         43.2504
  21048857.4434   -7409081.57749  -5762277.79648                  21048856.7914
        50.0004         42.7504
  22006751.4284   -6347214.17549  -4934801.59147                  22006750.5414
        47.5004         36.0004
  23023143.4124    3846023.79849   2983772.43147                  23023142.7484
        47.0004         32.2504
 02  7 10 17 24 59.9980000  0  9G29G26G 6G15G17G18G21G 3G23
  23322413.1004    2027219.50449   1578285.97547                  23322412.7094
        42.5004         31.5004
  22308445.6474    1406780.55749   1090768.06947                  22308446.1584
        45.2504         34.0004
  22476880.0454    4819751.35749   3739773.61547                  22476880.5964
        42.0004         32.5004
  19695703.7404   -3125861.20449  -2428763.07648                  19695702.2134
        52.2504         44.5004
  20022825.0684   -1902662.97149  -1479216.58048                  20022823.0924
        52.0004         44.0004
  19651393.0844   -3842815.44449  -2984727.54748                  19651390.4004
        51.0004         43.0004
  21040562.2174   -7452674.54449  -5796246.33348                  21040560.9044
        50.0004         42.5004
  21995597.2954   -6405826.88549  -4980473.82047                  21995597.0574
        48.5004         36.0004
  23027331.9984    3868036.92549   3000925.50247                  23027331.7644
        47.7504         33.2504
 02  7 10 17 25 14.9980000  0  9G29G26G 6G15G17G18G21G 3G23
  23325756.7874    2044793.57949   1591980.03647                  23325757.6004
        43.5004         30.5004
  22311572.2644    1423213.54349   1103572.96247                  22311572.8224
        46.0004         34.5004
  22482901.7404    4851393.43849   3764429.72947                  22482902.2834
        43.5004         32.5004
  19692464.9514   -3142882.56549  -2442026.47848                  19692463.2014
        52.7504         45.0004
  20020905.0614   -1912751.25649  -1487077.58648                  20020903.4394
        51.0004         44.0004
  19647891.1934   -3861219.30849  -2999068.23248                  19647888.0144
        51.0004         43.5004
  21032275.5294   -7496223.05749  -5830180.20648                  21032274.4944
        50.0004         42.7504
  21984455.3654   -6464377.54149  -5026097.69647                  21984454.2324
        48.2504         36.5004
  23031517.6314    3890031.46449   3018064.06747                  23031518.0764
        47.5004         33.0004
 02  7 10 17 25 29.9980000  0  9G29G26G 6G15G17G18G21G 3G23
  23329112.9674    2062425.02549   1605718.78947                  23329112.8544
        44.7504         31.0004
  22314716.9204    1439736.27449   1116447.79247                  22314716.8034
        46.7504         34.0004
  22488926.4674    4883054.82649   3789100.88147                  22488927.3344
        44.0004         32.2504
  19689233.6624   -3159863.20649  -2455258.15648                  19689231.8464
        52.5004         44.7504
  20018991.6154   -1922805.90849  -1494912.38648                  20018990.4394
        51.5004         44.0004
  19644402.3654   -3879554.01649  -3013355.01948                  19644399.4084
        51.0004         43.2504
  21023995.7324   -7539731.86749  -5864083.16548                  21023994.7404
        50.0004         43.2504
  21973324.9754   -6522870.57349  -5071676.67247                  21973323.9204
        47.0004         36.5004
  23035698.4204    3912002.49649   3035184.31747                  23035698.9364
        46.2504         33.7504
 02  7 10 17 25 44.9980000  0  9G29G26G 6G15G17G18G21G 3G23
  23332478.3114    2080114.34249   1619502.65447                  23332478.4044
        44.0004         30.2504
  22317878.3264    1456349.18249   1129392.88247                  22317877.6894
        45.5004         34.5004
  22494955.2174    4914735.74949   3813787.23947                  22494955.6704
        44.0004         32.0004
  19686010.3504   -3176802.36049  -2468457.50648                  19686008.3384
        52.7504         45.0004
  20017084.9984   -1932826.34149  -1502720.54548                  20017083.2794
        51.7504         44.0004
  19640926.5374   -3897819.22649  -3027587.66548                  19640923.1504
        50.7504         43.0004
  21015724.1864   -7583200.55349  -5897954.86448                  21015722.9634
        50.5004         42.5004
  21962205.1624   -6581305.16849  -5117210.11847                  21962204.3894
        48.7504         36.5004
  23039874.8814    3933950.42149   3052286.54547                  23039875.6434
        46.2504         33.7504
 02  7 10 17 25 59.9980000  0  9G29G26G 6G15G17G18G21G 3G23
  23335854.3034    2097853.63749   1633325.43647                  23335854.5964
        44.5004         30.2504
  22321055.1004    1473044.29949   1142402.06147                  22321055.0924
        45.7504         33.0004
  22500986.6624    4946428.52549   3838482.84847                  22500987.3734
        45.2504         32.2504
  19682793.0614   -3193707.47649  -2481630.32848                  19682791.6044
        52.5004         44.7504
  20015183.1624   -1942819.96249  -1510507.78048                  20015181.4434
        51.2504         44.0004
  19637462.3894   -3916022.47149  -3041772.00248                  19637459.3544
        50.7504         43.0004
  21007458.2794   -7626636.56449  -5931801.07148                  21007457.5254
        50.2504         42.7504
  21951094.9044   -6639688.42149  -5162703.54247                  21951094.2644
        47.7504         36.7504
  23044046.0374    3955867.78949   3069364.98147                  23044046.1434
        47.0004         33.2504
 02  7 10 17 26 14.9980000  0  9G29G26G 6G15G17G18G21G 3G23
  23339241.2324    2115652.83349   1647194.91347                  23339241.3544
        45.5004         30.7504
  22324249.7324    1489831.59249   1155483.02447                  22324249.6154
        45.2504         32.5004
  22507021.2484    4978143.02649   3863195.38147                  22507022.5804
        45.5004         33.0004
  19679584.7564   -3210568.26449  -2494768.61448                  19679582.8854
        53.0004         44.7504
  20013288.8424   -1952776.32649  -1518266.00748                  20013286.9204
        51.5004         44.0004
  19634012.3504   -3934153.71449  -3055900.26648                  19634009.3384
        50.7504         43.2504
  20999200.9674   -7670029.66849  -5965613.87348                  20999200.1584
        50.2504         42.5004
  21939997.0614   -6698009.76349  -5208148.74647                  21939995.4324
        48.5004         36.7504
  23048213.4594    3977764.50949   3086427.32847                  23048213.2874
        47.0004         33.7504
 02  7 10 17 26 29.9980000  0  9G29G26G 6G15G17G18G21G 3G23
  23342639.4984    2133509.36449   1661109.06747                  23342639.1974
        45.0004         30.0004
  22327461.3034    1506708.47349   1168633.80547                  22327461.6744
        45.0004         33.5004
  22513060.4984    5009876.72549   3887922.87747                  22513060.9004
        44.7504         32.0004
  19676384.1314   -3227386.83049  -2507873.98948                  19676382.5144
        51.7504         44.7504
  20011400.9204   -1962697.73449  -1525996.98148                  20011398.7364
        51.7504         43.2504
  19630574.8894   -3952215.31449  -3069974.23448                  19630571.9984
        50.5004         43.0004
  20990951.1704   -7713382.07449  -5999394.95848                  20990950.5184
        50.0004         42.2504
  21928909.6624   -6756271.26949  -5253547.30747                  21928909.1314
        47.0004         36.7504
  23052375.0684    3999638.16149   3103471.69147                  23052375.7794
        47.0004         34.2504
 02  7 10 17 26 44.9980000  0  9G29G26G 6G15G17G18G21G 3G23
  23346046.7014    2151417.72349   1675063.58047                  23346047.3814
        44.5004         30.5004
  22330688.9204    1523669.19749   1181849.93247                  22330688.7054
        46.0004         33.5004
  22519101.6154    5041623.93949   3912660.90447                  22519102.3424
        44.5004         32.0004
  19673190.6314   -3244168.56549  -2520950.67048                  19673189.0724
        51.5004         44.5004
  20009518.2324   -1972589.51249  -1533704.87548                  20009516.5644
        51.5004         43.5004
  19627150.2404   -3970212.70749  -3083998.17848                  19627147.3344
        50.0004         43.0004
  20982707.9434   -7756699.20549  -6033148.54048                  20982707.3894
        50.2504         42.5004
  21917833.2484   -6814478.04949  -5298903.21147                  21917832.7254
        46.5004         36.0004
  23056532.5454    4021483.21249   3120493.77747                  23056532.9004
        47.5004         33.5004
 02  7 10 17 26 59.9980000  0  9G29G26G 6G15G17G18G21G 3G23
  23349465.8894    2169382.03149   1689061.72947                  23349465.9634
        44.2504         30.0004
  22333933.6934    1540718.26249   1195134.88847                  22333933.2484
        44.7504         34.0004
  22525146.1314    5073389.07849   3937412.89747                  22525146.4284
        44.2504         32.0004
  19670005.2324   -3260908.79749  -2533995.02248                  19670003.5924
        52.0004         44.5004
  20007642.5144   -1982446.88949  -1541385.94948                  20007640.9674
        50.5004         43.2504
  19623738.6074   -3988141.48749  -3097968.65648                  19623735.5334
        50.5004         43.0004
  20974472.8574   -7799976.51349  -6066871.10948                  20974472.0884
        49.5004         43.0004
  21906768.0924   -6872625.11549  -5344212.59447                  21906767.6074
        47.0004         36.0004
  23060684.9514    4043304.11149   3137497.05147                  23060684.2484
        47.0004         33.5004
 02  7 10 17 27 14.9980000  0  9G29G26G 6G15G17G18G21G 3G23
  23352894.7724    2187398.77849   1703100.70747                  23352893.9674
        45.2504         30.5004
  22337193.9284    1557851.74449   1208485.62247                  22337193.3344
        45.5004         34.2504
  22531193.9284    5105168.46949   3962176.00447                  22531194.4244
        42.7504         33.2504
  19666826.9204   -3277610.76249  -2547009.54348                  19666825.3654
        52.2504         44.5004
  20005772.1864   -1992273.15049  -1549042.79648                  20005770.9754
        50.7504         43.7504
  19620339.5534   -4006005.06349  -3111888.33448                  19620336.4124
        51.0004         43.5004
  20966244.5454   -7843217.19049  -6100565.13048                  20966243.8264
        50.0004         43.0004
  21895714.0844   -6930715.39649  -5389477.73947                  21895712.9714
        46.5004         35.7504
  23064831.7874    4065097.32149   3154478.74047                  23064831.7174
        47.0004         32.7504
 02  7 10 17 27 29.9980000  0  9G29G26G 6G15G17G18G21G 3G23
  23356333.3344    2205472.41749   1717184.03147                  23356333.4284
        44.5004         29.7504
  22340471.7564    1575074.19849   1221905.69347                  22340471.3814
        43.7504         33.7504
  22537244.6864    5136966.56149   3986953.64247                  22537245.2054
        43.7504         33.0004
  19663656.9514   -3294269.65549  -2559990.51648                  19663655.0764
        52.5004         44.5004
  20003909.6074   -2002063.54349  -1556671.68948                  20003907.7914
        51.0004         43.5004
  19616953.0064   -4023798.81849  -3125753.60248                  19616950.3614
        50.5004         43.0004
  20958024.0614   -7886416.72449  -6134227.09748                  20958023.5024
        50.2504         43.0004
  21884671.8734   -6988743.90149  -5434694.73747                  21884671.3304
        46.5004         36.5004
  23068974.1154    4086867.42049   3171442.39347                  23068974.4434
        47.0004         33.0004
 02  7 10 17 27 44.9980000  0  9G29G26G 6G15G17G18G21G 3G23
  23359783.7324    2223603.00949   1731311.73647                  23359784.1234
        43.7504         30.2504
  22343765.6004    1592385.61549   1235395.08447                  22343765.6004
        43.7504         33.7504
  22543299.4674    5168783.38049   4011745.92947                  22543300.5614
        43.0004         33.2504
  19660495.1314   -3310885.13049  -2572937.64348                  19660493.2054
        51.2504         44.7504
  20002052.8734   -2011817.68249  -1564272.31248                  20002051.8854
        51.0004         43.7504
  19613580.1004   -4041522.72549  -3139564.43848                  19613577.8694
        48.5004         43.5004
  20949811.1624   -7929574.71549  -6167856.67248                  20949810.3614
        50.2504         43.0004
  21873640.7174   -7046710.14249  -5479863.21447                  21873640.8654
        46.0004         36.5004
  23073113.2484    4108614.52249   3188388.18347                  23073112.7644
        47.0004         33.2504
 02  7 10 17 27 59.9980000  0  9G29G26G 6G15G17G18G21G 3G23
  23363242.8344    2241783.06049   1745477.97347                  23363243.4714
        43.7504         28.5004
  22347075.4594    1609778.41249   1248947.88347                  22347075.3894
        43.7504         34.5004
  22549356.1474    5200611.57449   4036547.05247                  22549357.5144
        44.0004         33.0004
  19657340.2094   -3327464.27949  -2585856.45748                  19657338.8264
        52.0004         44.5004
  20000202.7794   -2021542.70649  -1571850.27348                  20000201.1664
        51.7504         44.0004
  19610219.9364   -4059183.94249  -3153326.42948                  19610217.1194
        50.7504         44.0004
  20941605.1074   -7972698.26349  -6201459.43448                  20941604.1664
        49.5004         43.0004
  21862620.8264   -7104621.00649  -5524988.55647                  21862620.1624
        45.2504         36.2504
  23077245.7404    4130331.32849   3205310.31447                  23077245.3114
        46.7504         32.7504
 02  7 10 17 28 14.9980000  0  9G29G26G 6G15G17G18G21G 3G23
  23366713.2794    2260018.42549   1759687.32247                  23366713.7684
        44.0004         29.0004
  22350402.1004    1627258.46849   1262568.65447                  22350402.1934
        44.2504         34.7504
  22555416.4754    5232456.95049   4061361.57847                  22555417.4124
        43.7504         33.0004
  19654193.3734   -3344000.80249  -2598742.05648                  19654191.9004
        52.5004         44.5004
  19998359.0924   -2031232.33849  -1579400.64748                  19998356.9984
        51.5004         43.5004
  19606872.0294   -4076776.53049  -3167034.94348                  19606869.2054
        50.5004         43.2504
  20933406.2644   -8015781.40049  -6235030.68948                  20933405.5104
        50.0004         43.2504
  21851612.8424   -7162470.00249  -5570065.67547                  21851611.9284
        46.7504         37.2504
  23081372.8734    4152023.81549   3222213.51947                  23081373.6824
        47.0004         32.7504
 02  7 10 17 28 29.9980000  0  9G29G26G 6G15G17G18G21G 3G23
  23370194.5454    2278311.22649   1773941.39847                  23370194.5534
        43.7504         27.7504
  22353745.2724    1644827.84949   1276259.06247                  22353744.6114
        45.7504         34.0004
  22561480.3114    5264321.65849   4086191.14847                  22561481.0024
        43.5004         33.2504
  19651055.3034   -3360492.33249  -2611592.61748                  19651053.4904
        53.0004         44.2504
  19996522.4594   -2040884.04049  -1586921.46348                  19996520.7564
        52.0004         43.7504
  19603537.8184   -4094298.15049  -3180688.15548                  19603534.9004
        51.0004         43.5004
  20925216.5374   -8058821.56949  -6268568.46248                  20925215.1744
        50.0004         42.5004
  21840617.0294   -7220254.27849  -5615092.36547                  21840616.3734
        45.5004         36.7504
  23085497.6474    4173694.23749   3239099.53747                  23085497.6704
        47.0004         31.7504
 02  7 10 17 28 44.9980000  0  9G29G26G 6G15G17G18G21G 3G23
  23373685.8654    2296656.24449   1788236.21847                  23373685.6664
        45.0004         27.7504
  22357103.9594    1662481.42049   1290015.04947                  22357104.1004
        43.7504         34.2504
  22567545.9434    5296200.54049   4111031.78447                  22567547.6974
        42.5004         34.0004
  19647924.7724   -3376943.63249  -2624411.82048                  19647922.7874
        51.5004         44.5004
  19994691.8734   -2050502.70049  -1594416.54648                  19994690.4594
        51.0004         43.5004
  19600216.1474   -4111753.78949  -3194289.95548                  19600213.0024
        47.5004         43.2504
  20917033.3814   -8101823.72249  -6302076.62448                  20917032.2294
        49.5004         42.5004
  21829632.2014   -7277978.53349  -5660072.28947                  21829631.4794
        46.0004         36.5004
  23089615.6004    4195337.60149   3255964.43847                  23089615.8814
        46.2504         31.5004
 02  7 10 17 28 59.9980000  0  9G29G26G 6G15G17G18G21G 3G23
  23377185.5374    2315051.53949   1802570.21447                  23377185.9164
        44.2504         27.5004
  22360479.3184    1680217.11249   1303835.03347                  22360479.4044
        43.7504         34.0004
  22573614.6004    5328091.59249   4135881.88447                  22573616.4164
        42.5004         32.5004
  19644801.3424   -3393356.39549  -2637200.99348                  19644799.1584
        50.7504         44.2504
  19992867.6154   -2060089.92749  -1601887.11648                  19992866.2484
        51.5004         43.5004
  19596906.4754   -4129145.34049  -3207841.80248                  19596903.7014
        47.5004         43.7504
  20908856.9904   -8144789.68549  -6335556.59448                  20908855.8074
        49.5004         43.0004
  21818658.6394   -7335644.18949  -5705006.53847                  21818658.3224
        44.5004         36.5004
  23093729.0294    4216951.95649   3272806.76747                  23093729.5924
        47.0004         32.2504
 02  7 10 17 29 14.9980000  0  9G29G26G 6G15G17G18G21G 3G23
  23380697.1474    2333500.48249   1816945.96347                  23380697.0804
        44.5004         27.0004
  22363870.8184    1698038.13849   1317721.53547                  22363869.9514
        43.5004         34.5004
  22579686.6544    5359998.11549   4160744.04947                  22579688.1544
        42.0004         32.2504
  19641686.1474   -3409726.84449  -2649957.19248                  19641684.2094
        53.0004         45.0004
  19991049.7404   -2069641.98549  -1609330.29048                  19991048.1314
        51.2504         44.0004
  19593609.9754   -4146469.24349  -3221340.95948                  19593607.1234
        51.0004         43.7504
  20900688.5614   -8187715.70649  -6369005.42348                  20900687.6894
        50.5004         43.0004
  21807696.7564   -7393247.24949  -5749892.02547                  21807696.4164
        45.5004         36.5004
  23097837.3344    4238540.78249   3289629.20247                  23097837.6114
        45.2504         31.2504
 02  7 10 17 29 29.9980000  0  9G29G26G 6G15G17G18G21G 3G23
  23384216.8424    2352001.00249   1831361.94247                  23384217.4474
        42.7504         26.7504
  22367278.2094    1715942.61449   1331673.02847                  22367277.8224
        43.7504         34.5004
  22585760.4514    5391918.21949   4185616.77147                  22585761.2484
        40.7504         30.2504
  19638579.0454   -3426056.60449  -2662681.68648                  19638577.2644
        52.7504         44.5004
  19989238.1704   -2079160.47349  -1616747.30748                  19989237.1934
        51.2504         44.0004
  19590325.6314   -4163727.39249  -3234788.86748                  19590322.7134
        51.2504         43.0004
  20892527.2014   -8230603.47549  -6402424.46448                  20892526.3464
        49.5004         42.5004
  21796747.3034   -7450789.06549  -5794729.79747                  21796746.1864
        44.7504         36.7504
  23101940.0684    4260102.24649   3306430.29747                  23101939.7444
        45.0004         31.2504
 02  7 10 17 29 44.9980000  0  9G29G26G 6G15G17G18G21G 3G23
  23387746.9364    2370552.61149   1845817.66547                  23387747.8264
        42.0004         26.2504
  22370700.4754    1733929.85349   1345689.02847                  22370701.1434
        43.0004         34.5004
  22591837.6544    5423851.30949   4210499.65547                  22591838.0924
        42.5004         30.0004
  19635478.6934   -3442345.91049  -2675374.65348                  19635477.0924
        53.2504         44.5004
  19987433.3894   -2088645.71649  -1624138.41348                  19987431.9554
        51.7504         43.7504
  19587054.3344   -4180920.15649  -3248185.82748                  19587051.3614
        50.7504         43.5004
  20884373.4204   -8273453.32349  -6435813.93148                  20884372.2914
        49.2504         42.5004
  21785809.0614   -7508269.65849  -5839519.85047                  21785808.1704
        44.7504         37.5004
  23106037.4904    4281635.85649   3323209.70647                  23106037.2914
        45.0004         32.5004
 02  7 10 17 29 59.9980000  0  9G29G26G 6G15G17G18G21G 3G23
  23391287.4204    2389155.12849   1860313.12547                  23391287.8734
        39.7504         27.0004
  22374139.0374    1751999.62749   1359769.34547                  22374138.9634
        43.0004         32.7504
  22597916.9904    5455797.19949   4235392.49247                  22597917.4714
        42.5004         31.0004
  19632386.9984   -3458594.57949  -2688035.96248                  19632385.3034
        52.0004         44.2504
  19985635.0534   -2098097.48849  -1631503.44248                  19985633.2134
        51.5004         43.2504
  19583794.8184   -4198047.52949  -3261531.83648                  19583791.8614
        50.7504         43.5004
  20876226.2254   -8316265.19249  -6469173.82848                  20876225.2564
        48.7504         42.5004
  21774882.4044   -7565688.70449  -5884261.95947                  21774881.9634
        44.5004         37.7504
  23110130.1864    4303141.61649   3339967.40847                  23110129.7604
        46.0004         31.5004
 02  7 10 17 30 14.9980000  0  9G29G26G 6G15G17G18G21G 3G23
  23394837.9674    2407811.81749   1874850.80647                  23394838.1894
        40.2504         27.5004
  22377594.4284    1770155.30749   1373916.58147                  22377593.4324
        43.5004         33.2504
  22603998.9364    5487759.22349   4260297.91347                  22603999.8264
        42.5004         32.2504
  19629303.2484   -3474798.90349  -2700662.71548                  19629301.5574
        51.2504         44.0004
  19983843.3894   -2107512.14549  -1638839.55548                  19983841.7604
        50.7504         43.7504
  19580548.3574   -4215106.04749  -3274824.19448                  19580545.7054
        49.2504         43.2504
  20868087.2794   -8359035.53649  -6502501.35548                  20868086.5724
        50.0004         43.0004
  21763968.6544   -7623042.16449  -5928952.93847                  21763967.7604
        46.7504         37.2504
  23114218.6704    4324622.94849   3356706.07647                  23114217.9204
        44.5004         32.5004
 02  7 10 17 30 29.9980000  0  9G29G26G 6G15G17G18G21G 3G23
  23398397.8344    2426521.25049   1889429.52647                  23398398.9164
        41.5004         28.5004
  22381064.8894    1788395.30949   1388129.54747                  22381064.2994
        43.2504         33.0004
  22610083.9204    5519735.94049   4285214.80347                  22610084.8424
        43.7504         31.7504
  19626227.7724   -3490960.07349  -2713255.83448                  19626225.8974
        48.0004         44.0004
  19982058.7644   -2116890.71449  -1646147.52848                  19982057.0614
        52.0004         43.2504
  19577315.6544   -4232097.00349  -3288063.89648                  19577312.4984
        47.0004         43.5004
  20859956.3814   -8401765.17349  -6535797.16648                  20859955.1194
        49.5004         43.0004
  21753066.6074   -7680330.87949  -5973593.48447                  21753066.5104
        45.7504         37.7504
  23118301.0764    4346078.53649   3373424.67547                  23118301.3694
        46.2504         31.5004
 02  7 10 17 30 44.9980000  0  9G29G26G 6G15G17G18G21G 3G23
  23401969.2404    2445283.97249   1904049.76347                  23401969.9244
        43.7504         29.2504
  22384552.0064    1806720.14949   1402408.60947                  22384552.1784
        44.0004         33.7504
  22616171.1624    5551727.85049   4310143.49047                  22616173.3074
        41.7504         30.7504
  19623160.7404   -3507077.30949  -2725814.72648                  19623159.2364
        48.7504         44.0004
  19980280.9984   -2126232.37049  -1653426.74948                  19980279.4514
        51.2504         43.2504
  19574095.0454   -4249019.90449  -3301250.57448                  19574092.4824
        46.7504         43.5004
  20851833.0144   -8444453.41049  -6569060.71748                  20851831.5144
        49.2504         42.7504
  21742177.6074   -7737553.84449  -6018182.79247                  21742177.2254
        45.0004         37.2504
  23122379.2404    4367508.97749   3390123.68347                  23122380.0294
        44.0004         32.2504
